Wetterdaten: Freitag, 31.01.2020
Datum Zeit Temp. Aussen Temp. o. S. Temp +5cm Feuchte Auss Luftdruck Regen Sonnenschein Regendauer Solar Windben Empfang
31.01.2020 00:00 11,7 C 10,6 C 10,0 C 99 % 1002,9 hPa 0,0 l/m 0 min 0 min 0 W/m 25,7 km/h (4 Bft) 100,00 %
31.01.2020 00:02 11,7 C 10,6 C 10,0 C 99 % 1002,9 hPa 0,0 l/m 0 min 0 min 0 W/m 12,9 km/h (3 Bft) 100,00 %
31.01.2020 00:04 11,7 C 10,6 C 10,0 C 99 % 1003,0 hPa 0,0 l/m 0 min 0 min 0 W/m 19,3 km/h (3 Bft) 95,74 %
31.01.2020 00:08 11,8 C 11,1 C 10,0 C 99 % 1002,9 hPa 0,0 l/m 0 min 0 min 0 W/m 25,7 km/h (4 Bft) 97,87 %
31.01.2020 00:10 11,8 C 10,6 C 10,0 C 99 % 1003,0 hPa 0,0 l/m 0 min 0 min 0 W/m 12,9 km/h (3 Bft) 93,48 %
31.01.2020 00:12 11,8 C 10,6 C 10,0 C 99 % 1002,9 hPa 0,0 l/m 0 min 0 min 0 W/m 19,3 km/h (3 Bft) 97,87 %
31.01.2020 00:14 11,8 C 11,1 C 10,0 C 99 % 1003,0 hPa 0,0 l/m 0 min 0 min 0 W/m 22,5 km/h (4 Bft) 97,87 %
31.01.2020 00:16 11,8 C 11,1 C 10,0 C 99 % 1003,0 hPa 0,0 l/m 0 min 0 min 0 W/m 25,7 km/h (4 Bft) 97,87 %
31.01.2020 00:18 11,8 C 11,1 C 10,0 C 100 % 1003,3 hPa 0,0 l/m 0 min 0 min 0 W/m 22,5 km/h (4 Bft) 97,87 %
31.01.2020 00:20 11,8 C 11,1 C 10,0 C 100 % 1003,1 hPa 0,0 l/m 0 min 0 min 0 W/m 25,7 km/h (4 Bft) 97,87 %
31.01.2020 00:22 11,8 C 11,1 C 10,0 C 100 % 1003,0 hPa 0,0 l/m 0 min 0 min 0 W/m 12,9 km/h (3 Bft) 95,65 %
31.01.2020 00:24 11,9 C 11,1 C 10,0 C 100 % 1003,0 hPa 0,0 l/m 0 min 0 min 0 W/m 16,1 km/h (3 Bft) 97,87 %
31.01.2020 00:26 11,9 C 11,1 C 10,6 C 100 % 1003,0 hPa 0,0 l/m 0 min 0 min 0 W/m 22,5 km/h (4 Bft) 97,87 %
31.01.2020 00:28 11,9 C 11,1 C 10,0 C 100 % 1003,0 hPa 0,0 l/m 0 min 0 min 0 W/m 16,1 km/h (3 Bft) 97,87 %
31.01.2020 00:30 11,9 C 11,1 C 10,6 C 100 % 1003,1 hPa 0,0 l/m 0 min 0 min 0 W/m 29,0 km/h (5 Bft) 97,87 %
31.01.2020 00:32 11,9 C 11,1 C 10,6 C 100 % 1003,1 hPa 0,0 l/m 0 min 0 min 0 W/m 19,3 km/h (3 Bft) 95,74 %
31.01.2020 00:34 11,9 C 11,1 C 10,6 C 100 % 1003,1 hPa 0,0 l/m 0 min 0 min 0 W/m 32,2 km/h (5 Bft) 95,65 %
31.01.2020 00:36 11,9 C 11,1 C 10,6 C 100 % 1003,1 hPa 0,0 l/m 0 min 0 min 0 W/m 35,4 km/h (5 Bft) 95,74 %
31.01.2020 00:38 11,9 C 11,1 C 10,6 C 100 % 1003,2 hPa 0,0 l/m 0 min 0 min 0 W/m 19,3 km/h (3 Bft) 91,49 %
31.01.2020 00:40 11,9 C 11,1 C 10,6 C 99 % 1003,1 hPa 0,0 l/m 0 min 0 min 0 W/m 19,3 km/h (3 Bft) 95,74 %
31.01.2020 00:42 11,9 C 11,1 C 10,6 C 99 % 1003,3 hPa 0,0 l/m 0 min 0 min 0 W/m 16,1 km/h (3 Bft) 95,74 %
31.01.2020 00:44 11,9 C 11,1 C 10,6 C 99 % 1003,4 hPa 0,0 l/m 0 min 0 min 0 W/m 16,1 km/h (3 Bft) 97,87 %
31.01.2020 00:46 12,0 C 11,1 C 10,6 C 99 % 1003,2 hPa 0,0 l/m 0 min 0 min 0 W/m 6,4 km/h (2 Bft) 97,83 %
31.01.2020 00:48 12,0 C 11,1 C 10,6 C 99 % 1003,3 hPa 0,0 l/m 0 min 0 min 0 W/m 38,6 km/h (5 Bft) 97,87 %
31.01.2020 00:50 12,0 C 11,1 C 10,6 C 99 % 1003,3 hPa 0,0 l/m 0 min 0 min 0 W/m 22,5 km/h (4 Bft) 97,87 %
31.01.2020 00:52 12,0 C 11,1 C 10,6 C 99 % 1003,4 hPa 0,0 l/m 0 min 0 min 0 W/m 12,9 km/h (3 Bft) 91,49 %
31.01.2020 00:54 12,1 C 11,1 C 10,6 C 99 % 1003,6 hPa 0,0 l/m 0 min 0 min 0 W/m 35,4 km/h (5 Bft) 97,87 %
31.01.2020 00:56 12,1 C 11,1 C 10,6 C 99 % 1003,6 hPa 0,0 l/m 0 min 0 min 0 W/m 22,5 km/h (4 Bft) 95,65 %
31.01.2020 00:58 12,1 C 11,1 C 10,6 C 99 % 1003,6 hPa 0,0 l/m 0 min 0 min 0 W/m 16,1 km/h (3 Bft) 97,87 %
31.01.2020 01:00 12,1 C 11,1 C 10,6 C 99 % 1003,6 hPa 0,0 l/m 0 min 0 min 0 W/m 22,5 km/h (4 Bft) 97,87 %
31.01.2020 01:02 12,1 C 11,1 C 10,6 C 99 % 1003,8 hPa 0,0 l/m 0 min 0 min 0 W/m 32,2 km/h (5 Bft) 95,74 %
31.01.2020 01:04 12,1 C 11,1 C 10,6 C 99 % 1003,9 hPa 0,0 l/m 0 min 2 min 0 W/m 29,0 km/h (5 Bft) 97,78 %
31.01.2020 01:06 12,1 C 11,1 C 10,6 C 99 % 1003,9 hPa 0,0 l/m 0 min 0 min 0 W/m 25,7 km/h (4 Bft) 95,74 %
31.01.2020 01:08 12,1 C 11,1 C 10,6 C 99 % 1003,9 hPa 0,0 l/m 0 min 0 min 0 W/m 29,0 km/h (5 Bft) 95,74 %
31.01.2020 01:10 12,1 C 11,1 C 10,6 C 99 % 1004,0 hPa 0,0 l/m 0 min 0 min 0 W/m 22,5 km/h (4 Bft) 95,65 %
31.01.2020 01:12 12,1 C 11,1 C 10,6 C 99 % 1004,0 hPa 0,0 l/m 0 min 0 min 0 W/m 16,1 km/h (3 Bft) 95,74 %
31.01.2020 01:14 12,1 C 11,1 C 10,6 C 99 % 1004,0 hPa 0,0 l/m 0 min 0 min 0 W/m 25,7 km/h (4 Bft) 93,62 %
31.01.2020 01:16 12,1 C 11,1 C 10,6 C 99 % 1003,9 hPa 0,0 l/m 0 min 0 min 0 W/m 25,7 km/h (4 Bft) 95,74 %
31.01.2020 01:18 12,1 C 11,1 C 10,0 C 99 % 1003,9 hPa 0,0 l/m 0 min 0 min 0 W/m 25,7 km/h (4 Bft) 95,74 %
31.01.2020 01:20 12,1 C 11,1 C 10,0 C 99 % 1004,0 hPa 0,0 l/m 0 min 0 min 0 W/m 9,7 km/h (2 Bft) 95,74 %
31.01.2020 01:22 12,1 C 11,1 C 10,0 C 99 % 1003,9 hPa 0,0 l/m 0 min 2 min 0 W/m 16,1 km/h (3 Bft) 95,65 %
31.01.2020 01:24 12,1 C 11,1 C 10,0 C 99 % 1004,0 hPa 0,0 l/m 0 min 2 min 0 W/m 22,5 km/h (4 Bft) 95,74 %
31.01.2020 01:26 12,1 C 10,6 C 10,0 C 99 % 1004,0 hPa 0,0 l/m 0 min 0 min 0 W/m 22,5 km/h (4 Bft) 95,74 %
31.01.2020 01:28 12,1 C 10,6 C 10,0 C 99 % 1004,2 hPa 0,0 l/m 0 min 2 min 0 W/m 12,9 km/h (3 Bft) 97,87 %
31.01.2020 01:30 12,1 C 10,6 C 10,0 C 99 % 1004,2 hPa 0,0 l/m 0 min 2 min 0 W/m 12,9 km/h (3 Bft) 97,87 %
31.01.2020 01:32 12,1 C 10,6 C 10,0 C 99 % 1004,2 hPa 0,0 l/m 0 min 2 min 0 W/m 25,7 km/h (4 Bft) 97,83 %
31.01.2020 01:34 12,1 C 10,6 C 10,0 C 99 % 1004,3 hPa 0,0 l/m 0 min 2 min 0 W/m 12,9 km/h (3 Bft) 97,87 %
31.01.2020 01:36 12,1 C 10,6 C 10,0 C 99 % 1004,3 hPa 0,0 l/m 0 min 2 min 0 W/m 29,0 km/h (5 Bft) 95,74 %
31.01.2020 01:38 12,1 C 10,6 C 10,0 C 99 % 1004,4 hPa 0,0 l/m 0 min 2 min 0 W/m 12,9 km/h (3 Bft) 97,87 %
31.01.2020 01:40 12,1 C 10,6 C 10,0 C 99 % 1004,4 hPa 0,0 l/m 0 min 2 min 0 W/m 3,2 km/h (1 Bft) 97,87 %
31.01.2020 01:42 12,1 C 10,6 C 10,0 C 99 % 1004,5 hPa 0,0 l/m 0 min 2 min 0 W/m 9,7 km/h (2 Bft) 97,87 %
31.01.2020 01:44 12,1 C 10,6 C 10,0 C 99 % 1004,4 hPa 0,0 l/m 0 min 2 min 0 W/m 3,2 km/h (1 Bft) 97,83 %
31.01.2020 01:46 12,1 C 10,6 C 10,0 C 99 % 1004,6 hPa 0,0 l/m 0 min 2 min 0 W/m 25,7 km/h (4 Bft) 95,74 %
31.01.2020 01:48 12,0 C 10,6 C 10,0 C 99 % 1004,5 hPa 0,0 l/m 0 min 2 min 0 W/m 6,4 km/h (2 Bft) 95,74 %
31.01.2020 01:50 12,0 C 10,6 C 10,0 C 99 % 1004,5 hPa 0,0 l/m 0 min 2 min 0 W/m 19,3 km/h (3 Bft) 97,87 %
31.01.2020 01:52 12,0 C 10,6 C 10,0 C 98 % 1004,5 hPa 0,0 l/m 0 min 2 min 0 W/m 0,0 km/h (0 Bft) 100,00 %
31.01.2020 01:54 12,0 C 10,6 C 10,0 C 98 % 1004,5 hPa 0,0 l/m 0 min 0 min 0 W/m 16,1 km/h (3 Bft) 97,87 %
31.01.2020 01:56 11,9 C 10,6 C 10,0 C 98 % 1004,5 hPa 0,0 l/m 0 min 0 min 0 W/m 9,7 km/h (2 Bft) 100,00 %
31.01.2020 01:58 11,9 C 10,6 C 10,0 C 98 % 1004,6 hPa 0,2 l/m 0 min 0 min 0 W/m 25,7 km/h (4 Bft) 100,00 %
31.01.2020 02:00 11,9 C 10,6 C 10,0 C 98 % 1004,6 hPa 0,0 l/m 0 min 0 min 0 W/m 3,2 km/h (1 Bft) 100,00 %
31.01.2020 02:02 11,9 C 10,6 C 10,0 C 98 % 1004,8 hPa 0,0 l/m 0 min 0 min 0 W/m 16,1 km/h (3 Bft) 100,00 %
31.01.2020 02:04 11,9 C 10,6 C 10,0 C 98 % 1004,7 hPa 0,0 l/m 0 min 0 min 0 W/m 19,3 km/h (3 Bft) 97,87 %
31.01.2020 02:06 11,9 C 10,6 C 10,0 C 98 % 1004,8 hPa 0,0 l/m 0 min 0 min 0 W/m 19,3 km/h (3 Bft) 97,87 %
31.01.2020 02:08 11,8 C 10,6 C 10,0 C 99 % 1004,8 hPa 0,0 l/m 0 min 0 min 0 W/m 19,3 km/h (3 Bft) 100,00 %
31.01.2020 02:10 11,8 C 10,6 C 10,0 C 99 % 1004,7 hPa 0,0 l/m 0 min 0 min 0 W/m 16,1 km/h (3 Bft) 100,00 %
31.01.2020 02:12 11,8 C 10,6 C 10,0 C 99 % 1004,8 hPa 0,0 l/m 0 min 0 min 0 W/m 19,3 km/h (3 Bft) 100,00 %
31.01.2020 02:14 11,8 C 10,6 C 10,0 C 99 % 1004,8 hPa 0,0 l/m 0 min 0 min 0 W/m 19,3 km/h (3 Bft) 100,00 %
31.01.2020 02:16 11,8 C 10,6 C 10,0 C 99 % 1004,9 hPa 0,0 l/m 0 min 0 min 0 W/m 6,4 km/h (2 Bft) 100,00 %
31.01.2020 02:18 11,8 C 10,6 C 10,0 C 99 % 1004,9 hPa 0,0 l/m 0 min 0 min 0 W/m 19,3 km/h (3 Bft) 100,00 %
31.01.2020 02:20 11,8 C 10,6 C 10,0 C 99 % 1005,0 hPa 0,0 l/m 0 min 0 min 0 W/m 6,4 km/h (2 Bft) 100,00 %
31.01.2020 02:22 11,8 C 10,6 C 10,0 C 99 % 1005,0 hPa 0,0 l/m 0 min 0 min 0 W/m 0,0 km/h (0 Bft) 97,87 %
31.01.2020 02:24 11,7 C 10,6 C 10,0 C 99 % 1005,1 hPa 0,0 l/m 0 min 0 min 0 W/m 16,1 km/h (3 Bft) 100,00 %
31.01.2020 02:26 11,7 C 10,6 C 10,0 C 99 % 1005,1 hPa 0,0 l/m 0 min 0 min 0 W/m 16,1 km/h (3 Bft) 100,00 %
31.01.2020 02:28 11,7 C 10,6 C 10,0 C 99 % 1005,1 hPa 0,0 l/m 0 min 0 min 0 W/m 6,4 km/h (2 Bft) 97,87 %
31.01.2020 02:30 11,7 C 10,6 C 10,0 C 99 % 1005,3 hPa 0,0 l/m 0 min 0 min 0 W/m 12,9 km/h (3 Bft) 100,00 %
31.01.2020 02:32 11,7 C 10,6 C 10,0 C 99 % 1005,1 hPa 0,0 l/m 0 min 2 min 0 W/m 12,9 km/h (3 Bft) 93,48 %
31.01.2020 02:34 11,7 C 10,6 C 10,0 C 98 % 1005,3 hPa 0,0 l/m 0 min 0 min 0 W/m 16,1 km/h (3 Bft) 97,87 %
31.01.2020 02:36 11,7 C 10,6 C 10,0 C 98 % 1005,1 hPa 0,0 l/m 0 min 2 min 0 W/m 3,2 km/h (1 Bft) 95,74 %
31.01.2020 02:38 11,6 C 10,6 C 10,0 C 98 % 1005,4 hPa 0,0 l/m 0 min 2 min 0 W/m 9,7 km/h (2 Bft) 97,87 %
31.01.2020 02:40 11,6 C 10,6 C 10,0 C 98 % 1005,4 hPa 0,0 l/m 0 min 2 min 0 W/m 16,1 km/h (3 Bft) 95,74 %
31.01.2020 02:42 11,6 C 10,6 C 10,0 C 98 % 1005,3 hPa 0,0 l/m 0 min 2 min 0 W/m 22,5 km/h (4 Bft) 95,74 %
31.01.2020 02:44 11,6 C 10,6 C 10,0 C 98 % 1005,3 hPa 0,0 l/m 0 min 2 min 0 W/m 3,2 km/h (1 Bft) 97,83 %
31.01.2020 02:46 11,6 C 10,6 C 10,0 C 98 % 1005,1 hPa 0,0 l/m 0 min 0 min 0 W/m 19,3 km/h (3 Bft) 95,74 %
31.01.2020 02:48 11,6 C 10,6 C 10,0 C 98 % 1005,2 hPa 0,0 l/m 0 min 0 min 0 W/m 6,4 km/h (2 Bft) 97,92 %
31.01.2020 02:50 11,6 C 10,6 C 10,0 C 98 % 1005,4 hPa 0,0 l/m 0 min 0 min 0 W/m 6,4 km/h (2 Bft) 95,74 %
31.01.2020 02:52 11,6 C 10,6 C 10,0 C 98 % 1005,4 hPa 0,0 l/m 0 min 0 min 0 W/m 9,7 km/h (2 Bft) 95,74 %
31.01.2020 02:54 11,6 C 10,0 C 9,4 C 98 % 1005,4 hPa 0,0 l/m 0 min 0 min 0 W/m 9,7 km/h (2 Bft) 97,83 %
31.01.2020 02:56 11,5 C 10,0 C 9,4 C 98 % 1005,5 hPa 0,0 l/m 0 min 0 min 0 W/m 6,4 km/h (2 Bft) 97,87 %
31.01.2020 02:58 11,5 C 10,0 C 9,4 C 99 % 1005,5 hPa 0,0 l/m 0 min 0 min 0 W/m 6,4 km/h (2 Bft) 82,98 %
31.01.2020 03:00 11,5 C 10,0 C 9,4 C 99 % 1005,6 hPa 0,0 l/m 0 min 0 min 0 W/m 16,1 km/h (3 Bft) 60,00 %
31.01.2020 03:02 11,4 C 10,0 C 9,4 C 99 % 1005,6 hPa 0,0 l/m 0 min 0 min 0 W/m 12,9 km/h (3 Bft) 97,87 %
31.01.2020 03:04 11,4 C 10,0 C 9,4 C 99 % 1005,8 hPa 0,0 l/m 0 min 0 min 0 W/m 6,4 km/h (2 Bft) 97,87 %
31.01.2020 03:06 11,4 C 10,0 C 9,4 C 98 % 1005,9 hPa 0,0 l/m 0 min 0 min 0 W/m 9,7 km/h (2 Bft) 95,65 %
31.01.2020 03:08 11,4 C 10,0 C 9,4 C 98 % 1005,8 hPa 0,0 l/m 0 min 0 min 0 W/m 12,9 km/h (3 Bft) 97,87 %
31.01.2020 03:10 11,4 C 10,0 C 9,4 C 98 % 1005,8 hPa 0,0 l/m 0 min 0 min 0 W/m 6,4 km/h (2 Bft) 97,87 %
31.01.2020 03:12 11,3 C 10,0 C 9,4 C 98 % 1005,8 hPa 0,0 l/m 0 min 0 min 0 W/m 9,7 km/h (2 Bft) 97,87 %
31.01.2020 03:14 11,3 C 10,0 C 9,4 C 98 % 1006,0 hPa 0,0 l/m 0 min 0 min 0 W/m 12,9 km/h (3 Bft) 97,87 %
31.01.2020 03:16 11,3 C 10,0 C 9,4 C 98 % 1005,9 hPa 0,0 l/m 0 min 0 min 0 W/m 19,3 km/h (3 Bft) 97,87 %
31.01.2020 03:18 11,3 C 10,0 C 9,4 C 98 % 1006,0 hPa 0,0 l/m 0 min 0 min 0 W/m 29,0 km/h (5 Bft) 97,83 %
31.01.2020 03:20 11,3 C 10,0 C 9,4 C 98 % 1006,1 hPa 0,0 l/m 0 min 0 min 0 W/m 16,1 km/h (3 Bft) 100,00 %
31.01.2020 03:22 11,3 C 10,0 C 9,4 C 98 % 1006,2 hPa 0,0 l/m 0 min 0 min 0 W/m 19,3 km/h (3 Bft) 97,87 %
31.01.2020 03:24 11,3 C 10,0 C 9,4 C 98 % 1006,2 hPa 0,2 l/m 0 min 0 min 0 W/m 22,5 km/h (4 Bft) 100,00 %
31.01.2020 03:26 11,3 C 10,0 C 9,4 C 98 % 1006,0 hPa 0,0 l/m 0 min 0 min 0 W/m 9,7 km/h (2 Bft) 100,00 %
31.01.2020 03:28 11,3 C 10,0 C 9,4 C 98 % 1006,0 hPa 0,0 l/m 0 min 0 min 0 W/m 22,5 km/h (4 Bft) 100,00 %
31.01.2020 03:30 11,3 C 10,0 C 9,4 C 98 % 1006,0 hPa 0,0 l/m 0 min 0 min 0 W/m 19,3 km/h (3 Bft) 100,00 %
31.01.2020 03:32 11,3 C 10,0 C 9,4 C 98 % 1006,0 hPa 0,0 l/m 0 min 0 min 0 W/m 19,3 km/h (3 Bft) 100,00 %
31.01.2020 03:34 11,3 C 10,0 C 9,4 C 98 % 1006,0 hPa 0,0 l/m 0 min 0 min 0 W/m 9,7 km/h (2 Bft) 100,00 %
31.01.2020 03:36 11,3 C 10,0 C 9,4 C 98 % 1006,0 hPa 0,0 l/m 0 min 0 min 0 W/m 16,1 km/h (3 Bft) 100,00 %
31.01.2020 03:38 11,3 C 10,0 C 9,4 C 98 % 1006,2 hPa 0,0 l/m 0 min 0 min 0 W/m 12,9 km/h (3 Bft) 97,87 %
31.01.2020 03:40 11,3 C 10,0 C 9,4 C 98 % 1006,2 hPa 0,0 l/m 0 min 0 min 0 W/m 22,5 km/h (4 Bft) 100,00 %
31.01.2020 03:42 11,2 C 10,0 C 9,4 C 98 % 1006,3 hPa 0,0 l/m 0 min 0 min 0 W/m 6,4 km/h (2 Bft) 100,00 %
31.01.2020 03:44 11,2 C 10,0 C 9,4 C 98 % 1006,3 hPa 0,0 l/m 0 min 0 min 0 W/m 19,3 km/h (3 Bft) 97,87 %
31.01.2020 03:46 11,2 C 10,0 C 9,4 C 98 % 1006,2 hPa 0,0 l/m 0 min 0 min 0 W/m 16,1 km/h (3 Bft) 97,87 %
31.01.2020 03:48 11,2 C 10,0 C 9,4 C 97 % 1006,4 hPa 0,0 l/m 0 min 0 min 0 W/m 19,3 km/h (3 Bft) 95,74 %
31.01.2020 03:50 11,2 C 10,0 C 9,4 C 97 % 1006,4 hPa 0,0 l/m 0 min 0 min 0 W/m 29,0 km/h (5 Bft) 97,87 %
31.01.2020 03:52 11,2 C 10,0 C 9,4 C 97 % 1006,3 hPa 0,0 l/m 0 min 0 min 0 W/m 9,7 km/h (2 Bft) 95,65 %
31.01.2020 03:54 11,2 C 10,0 C 9,4 C 97 % 1006,3 hPa 0,0 l/m 0 min 0 min 0 W/m 16,1 km/h (3 Bft) 97,87 %
31.01.2020 03:56 11,2 C 10,0 C 9,4 C 97 % 1006,4 hPa 0,0 l/m 0 min 0 min 0 W/m 25,7 km/h (4 Bft) 97,87 %
31.01.2020 03:58 11,2 C 10,0 C 9,4 C 97 % 1006,5 hPa 0,0 l/m 0 min 0 min 0 W/m 22,5 km/h (4 Bft) 95,74 %
31.01.2020 04:00 11,1 C 10,0 C 9,4 C 97 % 1006,4 hPa 0,0 l/m 0 min 0 min 0 W/m 19,3 km/h (3 Bft) 93,62 %
31.01.2020 04:05 11,1 C 10,0 C 9,4 C 97 % 1006,5 hPa 0,0 l/m 0 min 0 min 0 W/m 16,1 km/h (3 Bft) 93,44 %
31.01.2020 04:06 11,1 C 10,0 C 9,4 C 97 % 1006,5 hPa 0,0 l/m 0 min 0 min 0 W/m 9,7 km/h (2 Bft) 95,65 %
31.01.2020 04:08 11,1 C 10,0 C 9,4 C 97 % 1006,4 hPa 0,0 l/m 0 min 0 min 0 W/m 19,3 km/h (3 Bft) 95,74 %
31.01.2020 04:10 11,1 C 10,0 C 9,4 C 97 % 1006,6 hPa 0,0 l/m 0 min 0 min 0 W/m 12,9 km/h (3 Bft) 95,74 %
31.01.2020 04:12 11,1 C 10,0 C 9,4 C 97 % 1006,6 hPa 0,0 l/m 0 min 0 min 0 W/m 16,1 km/h (3 Bft) 95,74 %
31.01.2020 04:14 11,1 C 9,4 C 9,4 C 97 % 1006,7 hPa 0,0 l/m 0 min 0 min 0 W/m 22,5 km/h (4 Bft) 95,74 %
31.01.2020 04:16 11,1 C 9,4 C 9,4 C 97 % 1006,7 hPa 0,0 l/m 0 min 0 min 0 W/m 16,1 km/h (3 Bft) 93,48 %
31.01.2020 04:18 11,0 C 9,4 C 8,9 C 96 % 1006,7 hPa 0,0 l/m 0 min 0 min 0 W/m 12,9 km/h (3 Bft) 95,74 %
31.01.2020 04:20 11,0 C 9,4 C 8,9 C 96 % 1006,8 hPa 0,0 l/m 0 min 0 min 0 W/m 25,7 km/h (4 Bft) 95,74 %
31.01.2020 04:22 11,0 C 9,4 C 8,9 C 96 % 1006,8 hPa 0,0 l/m 0 min 0 min 0 W/m 22,5 km/h (4 Bft) 93,62 %
31.01.2020 04:24 11,0 C 9,4 C 8,9 C 96 % 1006,7 hPa 0,0 l/m 0 min 0 min 0 W/m 19,3 km/h (3 Bft) 93,62 %
31.01.2020 04:26 10,9 C 9,4 C 8,9 C 96 % 1006,7 hPa 0,0 l/m 0 min 0 min 0 W/m 12,9 km/h (3 Bft) 95,74 %
31.01.2020 04:28 10,9 C 9,4 C 8,9 C 96 % 1006,8 hPa 0,0 l/m 0 min 0 min 0 W/m 32,2 km/h (5 Bft) 95,65 %
31.01.2020 04:30 10,9 C 9,4 C 8,9 C 96 % 1007,0 hPa 0,0 l/m 0 min 0 min 0 W/m 19,3 km/h (3 Bft) 95,74 %
31.01.2020 04:32 10,9 C 9,4 C 8,9 C 96 % 1006,8 hPa 0,0 l/m 0 min 0 min 0 W/m 22,5 km/h (4 Bft) 93,62 %
31.01.2020 04:34 10,9 C 9,4 C 8,9 C 96 % 1006,8 hPa 0,0 l/m 0 min 0 min 0 W/m 32,2 km/h (5 Bft) 95,74 %
31.01.2020 04:36 10,9 C 9,4 C 8,9 C 96 % 1006,9 hPa 0,0 l/m 0 min 0 min 0 W/m 12,9 km/h (3 Bft) 95,74 %
31.01.2020 04:38 10,9 C 9,4 C 8,9 C 96 % 1007,0 hPa 0,0 l/m 0 min 0 min 0 W/m 12,9 km/h (3 Bft) 95,74 %
31.01.2020 04:40 10,9 C 9,4 C 8,9 C 95 % 1007,0 hPa 0,0 l/m 0 min 0 min 0 W/m 12,9 km/h (3 Bft) 95,65 %
31.01.2020 04:42 10,9 C 9,4 C 8,9 C 95 % 1007,0 hPa 0,0 l/m 0 min 0 min 0 W/m 9,7 km/h (2 Bft) 97,87 %
31.01.2020 04:44 10,9 C 9,4 C 8,9 C 95 % 1007,1 hPa 0,0 l/m 0 min 0 min 0 W/m 22,5 km/h (4 Bft) 95,74 %
31.01.2020 04:46 10,9 C 9,4 C 8,9 C 95 % 1007,2 hPa 0,0 l/m 0 min 0 min 0 W/m 19,3 km/h (3 Bft) 100,00 %
31.01.2020 04:48 10,9 C 9,4 C 8,9 C 95 % 1007,2 hPa 0,0 l/m 0 min 0 min 0 W/m 16,1 km/h (3 Bft) 100,00 %
31.01.2020 04:50 10,9 C 9,4 C 8,9 C 95 % 1007,2 hPa 0,0 l/m 0 min 0 min 0 W/m 16,1 km/h (3 Bft) 100,00 %
31.01.2020 04:52 10,9 C 9,4 C 8,9 C 95 % 1007,3 hPa 0,0 l/m 0 min 0 min 0 W/m 25,7 km/h (4 Bft) 95,65 %
31.01.2020 04:54 10,9 C 10,0 C 8,9 C 95 % 1007,2 hPa 0,0 l/m 0 min 0 min 0 W/m 19,3 km/h (3 Bft) 100,00 %
31.01.2020 04:56 10,9 C 9,4 C 8,9 C 95 % 1007,2 hPa 0,0 l/m 0 min 0 min 0 W/m 9,7 km/h (2 Bft) 100,00 %
31.01.2020 04:58 10,9 C 10,0 C 8,9 C 95 % 1007,2 hPa 0,0 l/m 0 min 0 min 0 W/m 12,9 km/h (3 Bft) 100,00 %
31.01.2020 05:00 10,9 C 10,0 C 8,9 C 94 % 1007,3 hPa 0,0 l/m 0 min 0 min 0 W/m 12,9 km/h (3 Bft) 97,87 %
31.01.2020 05:02 10,9 C 10,0 C 8,9 C 94 % 1007,3 hPa 0,0 l/m 0 min 0 min 0 W/m 12,9 km/h (3 Bft) 100,00 %
31.01.2020 05:04 10,9 C 10,0 C 8,9 C 94 % 1007,4 hPa 0,0 l/m 0 min 0 min 0 W/m 22,5 km/h (4 Bft) 100,00 %
31.01.2020 05:06 10,9 C 10,0 C 8,9 C 94 % 1007,5 hPa 0,0 l/m 0 min 0 min 0 W/m 16,1 km/h (3 Bft) 100,00 %
31.01.2020 05:08 10,9 C 10,0 C 8,9 C 94 % 1007,5 hPa 0,0 l/m 0 min 0 min 0 W/m 16,1 km/h (3 Bft) 100,00 %
31.01.2020 05:10 10,9 C 10,0 C 8,9 C 94 % 1007,4 hPa 0,0 l/m 0 min 0 min 0 W/m 19,3 km/h (3 Bft) 100,00 %
31.01.2020 05:12 10,9 C 10,0 C 8,9 C 94 % 1007,5 hPa 0,0 l/m 0 min 0 min 0 W/m 19,3 km/h (3 Bft) 100,00 %
31.01.2020 05:14 10,9 C 10,0 C 8,9 C 94 % 1007,5 hPa 0,0 l/m 0 min 0 min 0 W/m 9,7 km/h (2 Bft) 95,65 %
31.01.2020 05:16 11,0 C 10,0 C 8,9 C 93 % 1007,4 hPa 0,0 l/m 0 min 0 min 0 W/m 22,5 km/h (4 Bft) 95,74 %
31.01.2020 05:18 10,9 C 10,6 C 8,9 C 93 % 1007,6 hPa 0,0 l/m 0 min 0 min 0 W/m 25,7 km/h (4 Bft) 95,74 %
31.01.2020 05:20 10,9 C 10,6 C 8,9 C 93 % 1007,5 hPa 0,0 l/m 0 min 0 min 0 W/m 25,7 km/h (4 Bft) 43,24 %
31.01.2020 05:22 11,0 C 10,6 C 8,9 C 93 % 1007,6 hPa 0,0 l/m 0 min 0 min 0 W/m 9,7 km/h (2 Bft) 97,87 %
31.01.2020 05:24 10,9 C 10,6 C 8,9 C 93 % 1007,6 hPa 0,0 l/m 0 min 0 min 0 W/m 16,1 km/h (3 Bft) 97,87 %
31.01.2020 05:26 10,9 C 10,6 C 8,9 C 93 % 1007,7 hPa 0,0 l/m 0 min 0 min 0 W/m 16,1 km/h (3 Bft) 97,83 %
31.01.2020 05:28 11,0 C 10,6 C 8,9 C 93 % 1007,7 hPa 0,0 l/m 0 min 0 min 0 W/m 12,9 km/h (3 Bft) 97,87 %
31.01.2020 05:30 11,0 C 10,6 C 8,9 C 92 % 1007,8 hPa 0,0 l/m 0 min 0 min 0 W/m 9,7 km/h (2 Bft) 97,87 %
31.01.2020 05:32 10,9 C 10,6 C 8,9 C 93 % 1007,8 hPa 0,0 l/m 0 min 0 min 0 W/m 22,5 km/h (4 Bft) 97,87 %
31.01.2020 05:34 10,9 C 10,6 C 8,9 C 92 % 1007,9 hPa 0,0 l/m 0 min 0 min 0 W/m 12,9 km/h (3 Bft) 95,74 %
31.01.2020 05:36 10,9 C 10,6 C 8,9 C 92 % 1007,9 hPa 0,0 l/m 0 min 0 min 0 W/m 16,1 km/h (3 Bft) 97,87 %
31.01.2020 05:38 10,9 C 10,6 C 8,9 C 92 % 1007,9 hPa 0,0 l/m 0 min 0 min 0 W/m 16,1 km/h (3 Bft) 97,83 %
31.01.2020 05:40 10,9 C 10,6 C 8,9 C 92 % 1007,9 hPa 0,0 l/m 0 min 0 min 0 W/m 16,1 km/h (3 Bft) 97,87 %
31.01.2020 05:42 10,9 C 10,6 C 8,9 C 92 % 1007,9 hPa 0,0 l/m 0 min 0 min 0 W/m 32,2 km/h (5 Bft) 97,87 %
31.01.2020 05:44 10,9 C 10,6 C 8,9 C 92 % 1008,0 hPa 0,0 l/m 0 min 0 min 0 W/m 25,7 km/h (4 Bft) 97,87 %
31.01.2020 05:46 10,9 C 10,6 C 8,9 C 92 % 1008,0 hPa 0,0 l/m 0 min 0 min 0 W/m 16,1 km/h (3 Bft) 97,87 %
31.01.2020 05:48 10,9 C 10,0 C 8,9 C 91 % 1007,9 hPa 0,0 l/m 0 min 0 min 0 W/m 12,9 km/h (3 Bft) 97,83 %
31.01.2020 05:50 10,9 C 10,0 C 8,9 C 91 % 1008,0 hPa 0,0 l/m 0 min 0 min 0 W/m 16,1 km/h (3 Bft) 97,87 %
31.01.2020 05:52 10,9 C 10,0 C 8,9 C 91 % 1008,0 hPa 0,0 l/m 0 min 0 min 0 W/m 12,9 km/h (3 Bft) 95,74 %
31.01.2020 05:54 10,9 C 10,0 C 8,9 C 91 % 1008,0 hPa 0,0 l/m 0 min 0 min 0 W/m 16,1 km/h (3 Bft) 97,87 %
31.01.2020 05:56 10,9 C 10,0 C 8,9 C 91 % 1008,1 hPa 0,0 l/m 0 min 0 min 0 W/m 12,9 km/h (3 Bft) 100,00 %
31.01.2020 05:58 10,9 C 10,0 C 8,9 C 91 % 1008,1 hPa 0,0 l/m 0 min 0 min 0 W/m 12,9 km/h (3 Bft) 97,87 %
31.01.2020 06:00 10,9 C 10,0 C 8,9 C 91 % 1008,1 hPa 0,0 l/m 0 min 0 min 0 W/m 16,1 km/h (3 Bft) 100,00 %
31.01.2020 06:02 10,9 C 10,0 C 8,9 C 91 % 1008,1 hPa 0,0 l/m 0 min 0 min 0 W/m 25,7 km/h (4 Bft) 100,00 %
31.01.2020 06:04 10,9 C 10,6 C 8,9 C 91 % 1008,0 hPa 0,0 l/m 0 min 0 min 0 W/m 16,1 km/h (3 Bft) 100,00 %
31.01.2020 06:06 10,8 C 10,0 C 8,9 C 91 % 1008,0 hPa 0,0 l/m 0 min 0 min 0 W/m 12,9 km/h (3 Bft) 100,00 %
31.01.2020 06:08 10,9 C 10,0 C 8,9 C 90 % 1008,1 hPa 0,0 l/m 0 min 0 min 0 W/m 12,9 km/h (3 Bft) 100,00 %
31.01.2020 06:10 10,8 C 10,0 C 8,9 C 90 % 1008,2 hPa 0,0 l/m 0 min 0 min 0 W/m 16,1 km/h (3 Bft) 97,87 %
31.01.2020 06:12 10,8 C 10,0 C 8,9 C 90 % 1008,1 hPa 0,0 l/m 0 min 0 min 0 W/m 16,1 km/h (3 Bft) 100,00 %
31.01.2020 06:14 10,8 C 10,0 C 8,9 C 90 % 1008,2 hPa 0,0 l/m 0 min 0 min 0 W/m 12,9 km/h (3 Bft) 100,00 %
31.01.2020 06:16 10,8 C 10,0 C 8,9 C 90 % 1008,2 hPa 0,0 l/m 0 min 0 min 0 W/m 16,1 km/h (3 Bft) 100,00 %
31.01.2020 06:18 10,8 C 10,0 C 8,9 C 90 % 1008,3 hPa 0,0 l/m 0 min 0 min 0 W/m 12,9 km/h (3 Bft) 97,87 %
31.01.2020 06:20 10,8 C 10,0 C 8,9 C 90 % 1008,3 hPa 0,0 l/m 0 min 0 min 0 W/m 19,3 km/h (3 Bft) 100,00 %
31.01.2020 06:22 10,8 C 10,0 C 8,9 C 90 % 1008,2 hPa 0,0 l/m 0 min 0 min 0 W/m 19,3 km/h (3 Bft) 100,00 %
31.01.2020 06:24 10,8 C 10,0 C 8,9 C 90 % 1008,2 hPa 0,0 l/m 0 min 0 min 0 W/m 29,0 km/h (5 Bft) 97,83 %
31.01.2020 06:26 10,8 C 10,0 C 9,4 C 89 % 1008,2 hPa 0,0 l/m 0 min 0 min 0 W/m 12,9 km/h (3 Bft) 100,00 %
31.01.2020 06:28 10,8 C 10,0 C 9,4 C 89 % 1008,2 hPa 0,0 l/m 0 min 0 min 0 W/m 12,9 km/h (3 Bft) 100,00 %
31.01.2020 06:30 10,8 C 10,0 C 9,4 C 89 % 1008,2 hPa 0,0 l/m 0 min 0 min 0 W/m 19,3 km/h (3 Bft) 100,00 %
31.01.2020 06:32 10,8 C 10,0 C 9,4 C 90 % 1008,2 hPa 0,0 l/m 0 min 0 min 0 W/m 16,1 km/h (3 Bft) 100,00 %
31.01.2020 06:34 10,8 C 10,0 C 9,4 C 89 % 1008,2 hPa 0,0 l/m 0 min 0 min 0 W/m 16,1 km/h (3 Bft) 97,87 %
31.01.2020 06:36 10,8 C 10,0 C 9,4 C 89 % 1008,3 hPa 0,0 l/m 0 min 0 min 0 W/m 19,3 km/h (3 Bft) 100,00 %
31.01.2020 06:38 10,8 C 10,0 C 9,4 C 90 % 1008,2 hPa 0,0 l/m 0 min 0 min 0 W/m 16,1 km/h (3 Bft) 95,74 %
31.01.2020 06:40 10,8 C 10,0 C 9,4 C 90 % 1008,3 hPa 0,0 l/m 0 min 0 min 0 W/m 16,1 km/h (3 Bft) 97,87 %
31.01.2020 06:42 10,8 C 10,0 C 9,4 C 90 % 1008,4 hPa 0,0 l/m 0 min 0 min 0 W/m 19,3 km/h (3 Bft) 95,74 %
31.01.2020 06:44 10,8 C 10,0 C 9,4 C 90 % 1008,4 hPa 0,0 l/m 0 min 0 min 0 W/m 16,1 km/h (3 Bft) 97,87 %
31.01.2020 06:46 10,8 C 10,0 C 9,4 C 90 % 1008,5 hPa 0,0 l/m 0 min 0 min 0 W/m 12,9 km/h (3 Bft) 95,74 %
31.01.2020 06:48 10,8 C 10,0 C 9,4 C 90 % 1008,5 hPa 0,0 l/m 0 min 0 min 0 W/m 16,1 km/h (3 Bft) 95,65 %
31.01.2020 06:50 10,8 C 10,0 C 9,4 C 89 % 1008,5 hPa 0,0 l/m 0 min 0 min 0 W/m 16,1 km/h (3 Bft) 95,74 %
31.01.2020 06:52 10,8 C 10,0 C 9,4 C 90 % 1008,5 hPa 0,0 l/m 0 min 0 min 0 W/m 16,1 km/h (3 Bft) 97,87 %
31.01.2020 06:54 10,8 C 10,0 C 9,4 C 89 % 1008,6 hPa 0,0 l/m 0 min 0 min 0 W/m 16,1 km/h (3 Bft) 97,87 %
31.01.2020 06:56 10,8 C 10,0 C 9,4 C 89 % 1008,5 hPa 0,0 l/m 0 min 0 min 0 W/m 19,3 km/h (3 Bft) 97,87 %
31.01.2020 06:58 10,8 C 10,0 C 9,4 C 89 % 1008,5 hPa 0,0 l/m 0 min 0 min 0 W/m 9,7 km/h (2 Bft) 97,83 %
31.01.2020 07:00 10,8 C 10,0 C 9,4 C 89 % 1008,6 hPa 0,0 l/m 0 min 0 min 0 W/m 22,5 km/h (4 Bft) 97,87 %
31.01.2020 07:02 10,8 C 10,0 C 9,4 C 89 % 1008,7 hPa 0,0 l/m 0 min 0 min 0 W/m 12,9 km/h (3 Bft) 95,74 %
31.01.2020 07:04 10,8 C 10,0 C 9,4 C 89 % 1008,7 hPa 0,0 l/m 0 min 0 min 0 W/m 12,9 km/h (3 Bft) 97,87 %
31.01.2020 07:06 10,8 C 10,0 C 9,4 C 89 % 1008,6 hPa 0,0 l/m 0 min 0 min 0 W/m 16,1 km/h (3 Bft) 95,74 %
31.01.2020 07:08 10,8 C 10,0 C 9,4 C 89 % 1008,7 hPa 0,0 l/m 0 min 0 min 0 W/m 12,9 km/h (3 Bft) 95,74 %
31.01.2020 07:10 10,7 C 10,0 C 9,4 C 89 % 1008,8 hPa 0,0 l/m 0 min 0 min 0 W/m 22,5 km/h (4 Bft) 95,65 %
31.01.2020 07:12 10,7 C 10,0 C 9,4 C 89 % 1008,8 hPa 0,0 l/m 0 min 0 min 0 W/m 19,3 km/h (3 Bft) 95,74 %
31.01.2020 07:14 10,7 C 10,0 C 9,4 C 89 % 1008,8 hPa 0,0 l/m 0 min 0 min 0 W/m 16,1 km/h (3 Bft) 95,74 %
31.01.2020 07:16 10,7 C 10,0 C 9,4 C 88 % 1008,9 hPa 0,0 l/m 0 min 0 min 0 W/m 16,1 km/h (3 Bft) 95,74 %
31.01.2020 07:18 10,7 C 10,0 C 9,4 C 88 % 1008,9 hPa 0,0 l/m 0 min 0 min 0 W/m 16,1 km/h (3 Bft) 93,62 %
31.01.2020 07:20 10,7 C 10,0 C 9,4 C 88 % 1009,0 hPa 0,0 l/m 0 min 0 min 0 W/m 16,1 km/h (3 Bft) 93,62 %
31.01.2020 07:22 10,7 C 10,0 C 9,4 C 88 % 1008,9 hPa 0,0 l/m 0 min 0 min 0 W/m 22,5 km/h (4 Bft) 93,48 %
31.01.2020 07:24 10,7 C 10,0 C 9,4 C 88 % 1008,9 hPa 0,0 l/m 0 min 0 min 0 W/m 16,1 km/h (3 Bft) 95,74 %
31.01.2020 07:26 10,7 C 10,0 C 9,4 C 88 % 1009,0 hPa 0,0 l/m 0 min 0 min 0 W/m 12,9 km/h (3 Bft) 95,74 %
31.01.2020 07:28 10,8 C 10,0 C 9,4 C 88 % 1009,0 hPa 0,0 l/m 0 min 0 min 0 W/m 29,0 km/h (5 Bft) 97,87 %
31.01.2020 07:30 10,7 C 10,0 C 9,4 C 89 % 1009,1 hPa 0,0 l/m 0 min 0 min 0 W/m 22,5 km/h (4 Bft) 97,87 %
31.01.2020 07:32 10,8 C 10,0 C 9,4 C 89 % 1009,1 hPa 0,0 l/m 0 min 0 min 0 W/m 16,1 km/h (3 Bft) 97,87 %
31.01.2020 07:34 10,8 C 10,0 C 9,4 C 89 % 1009,1 hPa 0,0 l/m 0 min 0 min 0 W/m 16,1 km/h (3 Bft) 97,83 %
31.01.2020 07:36 10,7 C 10,0 C 9,4 C 89 % 1009,1 hPa 0,0 l/m 0 min 0 min 0 W/m 16,1 km/h (3 Bft) 97,87 %
31.01.2020 07:38 10,8 C 10,0 C 9,4 C 89 % 1009,1 hPa 0,0 l/m 0 min 0 min 0 W/m 19,3 km/h (3 Bft) 97,87 %
31.01.2020 07:40 10,7 C 10,0 C 9,4 C 89 % 1009,1 hPa 0,0 l/m 0 min 0 min 0 W/m 16,1 km/h (3 Bft) 97,87 %
31.01.2020 07:42 10,7 C 10,0 C 9,4 C 89 % 1009,1 hPa 0,0 l/m 0 min 0 min 0 W/m 12,9 km/h (3 Bft) 97,87 %
31.01.2020 07:44 10,7 C 10,0 C 9,4 C 89 % 1009,2 hPa 0,0 l/m 0 min 0 min 0 W/m 12,9 km/h (3 Bft) 100,00 %
31.01.2020 07:46 10,7 C 10,0 C 9,4 C 89 % 1009,2 hPa 0,0 l/m 0 min 0 min 0 W/m 16,1 km/h (3 Bft) 91,30 %
31.01.2020 07:48 10,7 C 10,0 C 9,4 C 89 % 1009,2 hPa 0,0 l/m 0 min 0 min 0 W/m 25,7 km/h (4 Bft) 95,74 %
31.01.2020 07:50 10,7 C 10,0 C 9,4 C 89 % 1009,2 hPa 0,0 l/m 0 min 0 min 0 W/m 12,9 km/h (3 Bft) 95,74 %
31.01.2020 07:52 10,7 C 10,0 C 9,4 C 89 % 1009,3 hPa 0,0 l/m 0 min 0 min 0 W/m 12,9 km/h (3 Bft) 91,49 %
31.01.2020 07:54 10,7 C 10,0 C 9,4 C 89 % 1009,3 hPa 0,0 l/m 0 min 0 min 0 W/m 16,1 km/h (3 Bft) 95,74 %
31.01.2020 07:56 10,7 C 10,0 C 9,4 C 89 % 1009,3 hPa 0,0 l/m 0 min 0 min 0 W/m 19,3 km/h (3 Bft) 95,65 %
31.01.2020 08:00 10,7 C 10,0 C 9,4 C 88 % 1009,4 hPa 0,0 l/m 0 min 0 min 0 W/m 22,5 km/h (4 Bft) 98,08 %
31.01.2020 08:02 10,7 C 10,0 C 9,4 C 88 % 1009,4 hPa 0,0 l/m 0 min 0 min 0 W/m 12,9 km/h (3 Bft) 97,87 %
31.01.2020 08:04 10,7 C 10,0 C 9,4 C 88 % 1009,4 hPa 0,0 l/m 0 min 0 min 0 W/m 29,0 km/h (5 Bft) 97,87 %
31.01.2020 08:06 10,7 C 10,0 C 9,4 C 88 % 1009,4 hPa 0,0 l/m 0 min 0 min 0 W/m 16,1 km/h (3 Bft) 97,87 %
31.01.2020 08:08 10,6 C 10,0 C 9,4 C 88 % 1009,4 hPa 0,0 l/m 0 min 0 min 0 W/m 12,9 km/h (3 Bft) 97,87 %
31.01.2020 08:10 10,6 C 10,0 C 9,4 C 88 % 1009,5 hPa 0,0 l/m 0 min 0 min 0 W/m 12,9 km/h (3 Bft) 95,65 %
31.01.2020 08:12 10,6 C 10,0 C 9,4 C 88 % 1009,5 hPa 0,0 l/m 0 min 0 min 0 W/m 12,9 km/h (3 Bft) 97,87 %
31.01.2020 08:14 10,6 C 10,0 C 8,9 C 88 % 1009,6 hPa 0,0 l/m 0 min 0 min 0 W/m 19,3 km/h (3 Bft) 97,87 %
31.01.2020 08:16 10,6 C 10,0 C 9,4 C 88 % 1009,5 hPa 0,0 l/m 0 min 0 min 0 W/m 16,1 km/h (3 Bft) 97,87 %
31.01.2020 08:18 10,6 C 10,0 C 8,9 C 88 % 1009,5 hPa 0,0 l/m 0 min 0 min 0 W/m 16,1 km/h (3 Bft) 97,87 %
31.01.2020 08:20 10,6 C 10,0 C 9,4 C 88 % 1009,6 hPa 0,0 l/m 0 min 0 min 0 W/m 16,1 km/h (3 Bft) 97,83 %
31.01.2020 08:22 10,6 C 10,0 C 9,4 C 87 % 1009,7 hPa 0,0 l/m 0 min 0 min 0 W/m 12,9 km/h (3 Bft) 95,74 %
31.01.2020 08:24 10,6 C 10,0 C 9,4 C 87 % 1009,7 hPa 0,0 l/m 0 min 0 min 0 W/m 19,3 km/h (3 Bft) 97,87 %
31.01.2020 08:26 10,6 C 10,0 C 9,4 C 86 % 1009,7 hPa 0,0 l/m 0 min 0 min 0 W/m 12,9 km/h (3 Bft) 97,87 %
31.01.2020 08:28 10,6 C 10,0 C 9,4 C 86 % 1009,7 hPa 0,0 l/m 0 min 0 min 0 W/m 19,3 km/h (3 Bft) 95,74 %
31.01.2020 08:30 10,6 C 10,0 C 9,4 C 86 % 1009,8 hPa 0,0 l/m 0 min 0 min 0 W/m 12,9 km/h (3 Bft) 100,00 %
31.01.2020 08:32 10,6 C 10,0 C 9,4 C 86 % 1009,8 hPa 0,0 l/m 0 min 0 min 4 W/m 12,9 km/h (3 Bft) 100,00 %
31.01.2020 08:34 10,6 C 10,0 C 9,4 C 86 % 1009,9 hPa 0,0 l/m 0 min 0 min 5 W/m 16,1 km/h (3 Bft) 100,00 %
31.01.2020 08:36 10,6 C 10,0 C 9,4 C 86 % 1009,9 hPa 0,0 l/m 0 min 0 min 5 W/m 22,5 km/h (4 Bft) 100,00 %
31.01.2020 08:38 10,6 C 10,0 C 9,4 C 86 % 1010,0 hPa 0,0 l/m 0 min 0 min 5 W/m 6,4 km/h (2 Bft) 100,00 %
31.01.2020 08:40 10,6 C 10,0 C 9,4 C 86 % 1010,0 hPa 0,0 l/m 0 min 0 min 7 W/m 6,4 km/h (2 Bft) 100,00 %
31.01.2020 08:42 10,6 C 10,0 C 9,4 C 86 % 1010,1 hPa 0,0 l/m 0 min 0 min 7 W/m 12,9 km/h (3 Bft) 100,00 %
31.01.2020 08:44 10,6 C 10,0 C 9,4 C 86 % 1010,1 hPa 0,0 l/m 0 min 0 min 9 W/m 6,4 km/h (2 Bft) 100,00 %
31.01.2020 08:46 10,6 C 10,0 C 9,4 C 86 % 1010,1 hPa 0,0 l/m 0 min 0 min 7 W/m 16,1 km/h (3 Bft) 100,00 %
31.01.2020 08:48 10,6 C 10,0 C 9,4 C 86 % 1010,1 hPa 0,0 l/m 0 min 0 min 9 W/m 12,9 km/h (3 Bft) 100,00 %
31.01.2020 08:50 10,6 C 10,0 C 9,4 C 86 % 1010,1 hPa 0,0 l/m 0 min 0 min 7 W/m 9,7 km/h (2 Bft) 100,00 %
31.01.2020 08:52 10,6 C 10,0 C 9,4 C 86 % 1010,2 hPa 0,0 l/m 0 min 0 min 9 W/m 9,7 km/h (2 Bft) 100,00 %
31.01.2020 08:54 10,6 C 10,0 C 9,4 C 86 % 1010,2 hPa 0,0 l/m 0 min 0 min 10 W/m 6,4 km/h (2 Bft) 100,00 %
31.01.2020 08:56 10,6 C 10,0 C 9,4 C 86 % 1010,2 hPa 0,0 l/m 0 min 0 min 11 W/m 12,9 km/h (3 Bft) 100,00 %
31.01.2020 08:58 10,5 C 10,0 C 9,4 C 86 % 1010,2 hPa 0,0 l/m 0 min 0 min 11 W/m 9,7 km/h (2 Bft) 100,00 %
31.01.2020 09:00 10,5 C 10,0 C 9,4 C 86 % 1010,2 hPa 0,0 l/m 0 min 0 min 14 W/m 12,9 km/h (3 Bft) 95,74 %
31.01.2020 09:02 10,5 C 10,0 C 9,4 C 87 % 1010,2 hPa 0,0 l/m 0 min 0 min 17 W/m 12,9 km/h (3 Bft) 100,00 %
31.01.2020 09:04 10,6 C 10,0 C 9,4 C 87 % 1010,2 hPa 0,0 l/m 0 min 0 min 19 W/m 9,7 km/h (2 Bft) 100,00 %
31.01.2020 09:06 10,5 C 10,0 C 9,4 C 87 % 1010,3 hPa 0,0 l/m 0 min 0 min 20 W/m 6,4 km/h (2 Bft) 97,83 %
31.01.2020 09:08 10,5 C 10,0 C 9,4 C 87 % 1010,3 hPa 0,0 l/m 0 min 0 min 25 W/m 6,4 km/h (2 Bft) 100,00 %
31.01.2020 09:10 10,5 C 10,0 C 9,4 C 87 % 1010,2 hPa 0,0 l/m 0 min 0 min 28 W/m 16,1 km/h (3 Bft) 100,00 %
31.01.2020 09:12 10,5 C 10,0 C 9,4 C 87 % 1010,3 hPa 0,0 l/m 0 min 0 min 33 W/m 12,9 km/h (3 Bft) 100,00 %
31.01.2020 09:14 10,5 C 10,0 C 9,4 C 88 % 1010,3 hPa 0,0 l/m 0 min 0 min 32 W/m 6,4 km/h (2 Bft) 100,00 %
31.01.2020 09:16 10,5 C 10,0 C 9,4 C 88 % 1010,3 hPa 0,0 l/m 0 min 0 min 30 W/m 6,4 km/h (2 Bft) 100,00 %
31.01.2020 09:18 10,5 C 10,0 C 9,4 C 88 % 1010,3 hPa 0,0 l/m 0 min 0 min 32 W/m 6,4 km/h (2 Bft) 97,37 %
31.01.2020 09:20 10,5 C 10,0 C 9,4 C 88 % 1010,3 hPa 0,0 l/m 0 min 0 min 38 W/m 12,9 km/h (3 Bft) 97,87 %
31.01.2020 09:22 10,4 C 10,0 C 9,4 C 88 % 1010,2 hPa 0,0 l/m 0 min 0 min 42 W/m 12,9 km/h (3 Bft) 100,00 %
31.01.2020 09:24 10,4 C 10,0 C 9,4 C 88 % 1010,3 hPa 0,0 l/m 0 min 0 min 44 W/m 19,3 km/h (3 Bft) 100,00 %
31.01.2020 09:26 10,5 C 10,0 C 9,4 C 88 % 1010,3 hPa 0,0 l/m 0 min 0 min 45 W/m 12,9 km/h (3 Bft) 100,00 %
31.01.2020 09:28 10,4 C 10,0 C 9,4 C 88 % 1010,4 hPa 0,0 l/m 0 min 0 min 50 W/m 16,1 km/h (3 Bft) 100,00 %
31.01.2020 09:30 10,5 C 10,0 C 9,4 C 88 % 1010,3 hPa 0,0 l/m 0 min 0 min 54 W/m 12,9 km/h (3 Bft) 97,83 %
31.01.2020 09:32 10,5 C 10,0 C 9,4 C 88 % 1010,2 hPa 0,0 l/m 0 min 0 min 55 W/m 19,3 km/h (3 Bft) 98,11 %
31.01.2020 09:34 10,5 C 10,6 C 9,4 C 87 % 1010,2 hPa 0,0 l/m 0 min 0 min 62 W/m 16,1 km/h (3 Bft) 97,87 %
31.01.2020 09:36 10,5 C 10,6 C 9,4 C 87 % 1010,3 hPa 0,0 l/m 0 min 0 min 69 W/m 25,7 km/h (4 Bft) 97,87 %
31.01.2020 09:38 10,5 C 10,6 C 9,4 C 86 % 1010,2 hPa 0,0 l/m 0 min 0 min 70 W/m 25,7 km/h (4 Bft) 98,00 %
31.01.2020 09:40 10,6 C 10,6 C 9,4 C 86 % 1010,2 hPa 0,0 l/m 0 min 0 min 72 W/m 16,1 km/h (3 Bft) 97,83 %
31.01.2020 09:42 10,6 C 10,6 C 9,4 C 86 % 1010,2 hPa 0,0 l/m 0 min 0 min 69 W/m 12,9 km/h (3 Bft) 97,87 %
31.01.2020 09:44 10,6 C 10,6 C 9,4 C 86 % 1010,3 hPa 0,0 l/m 0 min 0 min 71 W/m 16,1 km/h (3 Bft) 97,87 %
31.01.2020 09:46 10,6 C 10,6 C 9,4 C 85 % 1010,3 hPa 0,0 l/m 0 min 0 min 74 W/m 16,1 km/h (3 Bft) 97,87 %
31.01.2020 09:48 10,6 C 10,6 C 9,4 C 85 % 1010,3 hPa 0,0 l/m 0 min 0 min 74 W/m 12,9 km/h (3 Bft) 97,37 %
31.01.2020 09:50 10,6 C 10,6 C 9,4 C 85 % 1010,4 hPa 0,0 l/m 0 min 0 min 76 W/m 12,9 km/h (3 Bft) 97,87 %
31.01.2020 09:52 10,6 C 10,6 C 9,4 C 85 % 1010,4 hPa 0,0 l/m 0 min 0 min 77 W/m 16,1 km/h (3 Bft) 97,87 %
31.01.2020 09:54 10,7 C 10,6 C 9,4 C 85 % 1010,4 hPa 0,0 l/m 0 min 0 min 74 W/m 12,9 km/h (3 Bft) 98,08 %
31.01.2020 09:56 10,7 C 10,6 C 9,4 C 86 % 1010,4 hPa 0,0 l/m 0 min 0 min 71 W/m 12,9 km/h (3 Bft) 98,00 %
31.01.2020 09:58 10,7 C 10,6 C 10,0 C 86 % 1010,4 hPa 0,0 l/m 0 min 0 min 80 W/m 12,9 km/h (3 Bft) 94,74 %
31.01.2020 10:00 10,7 C 10,6 C 10,0 C 86 % 1010,4 hPa 0,0 l/m 0 min 0 min 96 W/m 16,1 km/h (3 Bft) 97,87 %
31.01.2020 10:02 10,7 C 10,6 C 10,0 C 86 % 1010,4 hPa 0,0 l/m 0 min 0 min 95 W/m 19,3 km/h (3 Bft) 94,34 %
31.01.2020 10:04 10,7 C 10,6 C 10,0 C 86 % 1010,3 hPa 0,0 l/m 0 min 0 min 84 W/m 29,0 km/h (5 Bft) 97,83 %
31.01.2020 10:06 10,7 C 10,6 C 10,0 C 86 % 1010,4 hPa 0,0 l/m 0 min 0 min 83 W/m 12,9 km/h (3 Bft) 97,87 %
31.01.2020 10:08 10,7 C 10,6 C 10,0 C 86 % 1010,3 hPa 0,0 l/m 0 min 0 min 74 W/m 16,1 km/h (3 Bft) 95,74 %
31.01.2020 10:10 10,8 C 10,6 C 10,0 C 86 % 1010,3 hPa 0,0 l/m 0 min 0 min 75 W/m 9,7 km/h (2 Bft) 98,00 %
31.01.2020 10:12 10,8 C 10,6 C 10,0 C 86 % 1010,3 hPa 0,0 l/m 0 min 0 min 92 W/m 19,3 km/h (3 Bft) 94,74 %
31.01.2020 10:14 10,8 C 10,6 C 10,0 C 86 % 1010,3 hPa 0,0 l/m 0 min 0 min 79 W/m 12,9 km/h (3 Bft) 94,29 %
31.01.2020 10:16 10,8 C 10,6 C 10,0 C 86 % 1010,3 hPa 0,0 l/m 0 min 0 min 63 W/m 16,1 km/h (3 Bft) 91,38 %
31.01.2020 10:18 10,8 C 10,6 C 10,0 C 86 % 1010,3 hPa 0,0 l/m 0 min 0 min 72 W/m 12,9 km/h (3 Bft) 93,62 %
31.01.2020 10:20 10,8 C 10,6 C 10,0 C 86 % 1010,2 hPa 0,0 l/m 0 min 0 min 103 W/m 19,3 km/h (3 Bft) 93,62 %
31.01.2020 10:22 10,8 C 11,1 C 10,0 C 87 % 1010,2 hPa 0,0 l/m 0 min 0 min 126 W/m 19,3 km/h (3 Bft) 95,74 %
31.01.2020 10:24 10,8 C 11,1 C 10,0 C 87 % 1010,2 hPa 0,0 l/m 0 min 0 min 127 W/m 12,9 km/h (3 Bft) 93,62 %
31.01.2020 10:26 10,9 C 11,1 C 10,0 C 87 % 1010,3 hPa 0,0 l/m 0 min 0 min 107 W/m 12,9 km/h (3 Bft) 92,45 %
31.01.2020 10:28 10,9 C 11,1 C 10,0 C 87 % 1010,3 hPa 0,0 l/m 0 min 0 min 98 W/m 16,1 km/h (3 Bft) 95,92 %
31.01.2020 10:30 10,9 C 11,1 C 10,0 C 87 % 1010,3 hPa 0,0 l/m 0 min 0 min 135 W/m 25,7 km/h (4 Bft) 97,37 %
31.01.2020 10:32 10,9 C 11,1 C 10,6 C 87 % 1010,3 hPa 0,0 l/m 2 min 0 min 158 W/m 25,7 km/h (4 Bft) 93,62 %
31.01.2020 10:34 11,0 C 11,7 C 10,6 C 87 % 1010,3 hPa 0,0 l/m 2 min 0 min 149 W/m 22,5 km/h (4 Bft) 94,34 %
31.01.2020 10:36 11,0 C 11,7 C 10,6 C 87 % 1010,3 hPa 0,0 l/m 0 min 0 min 142 W/m 16,1 km/h (3 Bft) 96,00 %
31.01.2020 10:38 11,1 C 11,1 C 10,6 C 87 % 1010,4 hPa 0,0 l/m 0 min 0 min 116 W/m 35,4 km/h (5 Bft) 95,65 %
31.01.2020 10:40 11,1 C 11,1 C 10,0 C 87 % 1010,4 hPa 0,0 l/m 0 min 0 min 92 W/m 16,1 km/h (3 Bft) 97,37 %
31.01.2020 10:42 11,1 C 11,1 C 10,0 C 87 % 1010,4 hPa 0,0 l/m 0 min 0 min 83 W/m 19,3 km/h (3 Bft) 95,74 %
31.01.2020 10:44 11,1 C 11,1 C 10,0 C 87 % 1010,4 hPa 0,0 l/m 0 min 0 min 77 W/m 16,1 km/h (3 Bft) 95,74 %
31.01.2020 10:46 11,1 C 11,1 C 10,0 C 87 % 1010,4 hPa 0,0 l/m 0 min 0 min 100 W/m 25,7 km/h (4 Bft) 93,62 %
31.01.2020 10:48 11,1 C 11,1 C 10,0 C 87 % 1010,5 hPa 0,0 l/m 0 min 0 min 74 W/m 19,3 km/h (3 Bft) 93,62 %
31.01.2020 10:50 11,1 C 10,6 C 10,0 C 86 % 1010,3 hPa 0,0 l/m 0 min 0 min 71 W/m 19,3 km/h (3 Bft) 95,74 %
31.01.2020 10:52 11,1 C 10,6 C 10,0 C 86 % 1010,3 hPa 0,0 l/m 0 min 0 min 83 W/m 12,9 km/h (3 Bft) 97,83 %
31.01.2020 10:54 11,1 C 11,1 C 10,0 C 86 % 1010,3 hPa 0,0 l/m 0 min 0 min 90 W/m 12,9 km/h (3 Bft) 97,87 %
31.01.2020 10:56 11,1 C 11,1 C 10,0 C 86 % 1010,3 hPa 0,0 l/m 0 min 0 min 91 W/m 22,5 km/h (4 Bft) 98,11 %
31.01.2020 10:58 11,1 C 11,1 C 10,0 C 86 % 1010,4 hPa 0,0 l/m 0 min 0 min 96 W/m 19,3 km/h (3 Bft) 97,87 %
31.01.2020 11:00 11,0 C 11,7 C 10,0 C 86 % 1010,4 hPa 0,0 l/m 2 min 0 min 189 W/m 19,3 km/h (3 Bft) 97,87 %
31.01.2020 11:02 11,1 C 11,7 C 10,6 C 86 % 1010,4 hPa 0,0 l/m 2 min 0 min 190 W/m 12,9 km/h (3 Bft) 97,83 %
31.01.2020 11:04 11,1 C 11,7 C 10,6 C 87 % 1010,4 hPa 0,0 l/m 0 min 0 min 165 W/m 16,1 km/h (3 Bft) 100,00 %
31.01.2020 11:06 11,1 C 11,7 C 10,6 C 87 % 1010,4 hPa 0,0 l/m 0 min 0 min 138 W/m 16,1 km/h (3 Bft) 97,87 %
31.01.2020 11:08 11,1 C 12,2 C 10,6 C 87 % 1010,4 hPa 0,0 l/m 2 min 0 min 212 W/m 19,3 km/h (3 Bft) 100,00 %
31.01.2020 11:10 11,2 C 13,3 C 10,6 C 86 % 1010,4 hPa 0,0 l/m 2 min 0 min 195 W/m 22,5 km/h (4 Bft) 97,87 %
31.01.2020 11:12 11,2 C 13,3 C 10,6 C 86 % 1010,4 hPa 0,0 l/m 2 min 0 min 273 W/m 22,5 km/h (4 Bft) 97,87 %
31.01.2020 11:14 11,3 C 13,3 C 10,6 C 86 % 1010,4 hPa 0,0 l/m 2 min 0 min 244 W/m 19,3 km/h (3 Bft) 100,00 %
31.01.2020 11:16 11,4 C 12,8 C 10,6 C 86 % 1010,4 hPa 0,0 l/m 2 min 0 min 317 W/m 29,0 km/h (5 Bft) 98,11 %
31.01.2020 11:18 11,4 C 12,8 C 10,6 C 85 % 1010,5 hPa 0,0 l/m 2 min 0 min 211 W/m 22,5 km/h (4 Bft) 100,00 %
31.01.2020 11:20 11,4 C 12,8 C 10,6 C 85 % 1010,6 hPa 0,0 l/m 2 min 0 min 279 W/m 19,3 km/h (3 Bft) 100,00 %
31.01.2020 11:22 11,5 C 12,2 C 10,6 C 85 % 1010,5 hPa 0,0 l/m 2 min 0 min 181 W/m 32,2 km/h (5 Bft) 100,00 %
31.01.2020 11:24 11,4 C 11,7 C 10,6 C 84 % 1010,6 hPa 0,0 l/m 0 min 0 min 141 W/m 48,3 km/h (6 Bft) 100,00 %
31.01.2020 11:26 11,4 C 12,2 C 10,6 C 84 % 1010,7 hPa 0,0 l/m 0 min 0 min 154 W/m 16,1 km/h (3 Bft) 100,00 %
31.01.2020 11:28 11,4 C 12,2 C 10,6 C 84 % 1010,5 hPa 0,0 l/m 2 min 0 min 185 W/m 22,5 km/h (4 Bft) 100,00 %
31.01.2020 11:30 11,4 C 12,2 C 10,6 C 84 % 1010,7 hPa 0,0 l/m 0 min 0 min 164 W/m 19,3 km/h (3 Bft) 100,00 %
31.01.2020 11:32 11,4 C 11,7 C 10,6 C 84 % 1010,6 hPa 0,0 l/m 0 min 0 min 146 W/m 22,5 km/h (4 Bft) 100,00 %
31.01.2020 11:34 11,4 C 11,7 C 10,6 C 85 % 1010,7 hPa 0,0 l/m 0 min 0 min 145 W/m 16,1 km/h (3 Bft) 97,14 %
31.01.2020 11:36 11,3 C 11,7 C 10,6 C 85 % 1010,7 hPa 0,0 l/m 0 min 0 min 165 W/m 29,0 km/h (5 Bft) 100,00 %
31.01.2020 11:38 11,3 C 11,7 C 10,6 C 85 % 1010,7 hPa 0,0 l/m 0 min 0 min 170 W/m 16,1 km/h (3 Bft) 100,00 %
31.01.2020 11:40 11,3 C 11,7 C 10,6 C 85 % 1010,7 hPa 0,0 l/m 0 min 0 min 170 W/m 22,5 km/h (4 Bft) 100,00 %
31.01.2020 11:42 11,3 C 11,7 C 10,6 C 85 % 1010,8 hPa 0,0 l/m 0 min 0 min 167 W/m 19,3 km/h (3 Bft) 97,87 %
31.01.2020 11:44 11,3 C 11,7 C 10,6 C 86 % 1010,8 hPa 0,0 l/m 0 min 0 min 185 W/m 16,1 km/h (3 Bft) 100,00 %
31.01.2020 11:46 11,3 C 11,7 C 10,6 C 86 % 1010,7 hPa 0,0 l/m 2 min 0 min 219 W/m 25,7 km/h (4 Bft) 100,00 %
31.01.2020 11:48 11,3 C 12,2 C 11,1 C 86 % 1010,8 hPa 0,0 l/m 2 min 0 min 224 W/m 16,1 km/h (3 Bft) 100,00 %
31.01.2020 11:50 11,4 C 12,2 C 11,1 C 86 % 1010,8 hPa 0,0 l/m 2 min 0 min 200 W/m 22,5 km/h (4 Bft) 100,00 %
31.01.2020 11:52 11,4 C 11,7 C 11,1 C 86 % 1010,8 hPa 0,0 l/m 0 min 0 min 189 W/m 19,3 km/h (3 Bft) 98,00 %
31.01.2020 11:54 11,4 C 11,7 C 11,1 C 86 % 1010,8 hPa 0,0 l/m 0 min 0 min 161 W/m 22,5 km/h (4 Bft) 100,00 %
31.01.2020 11:56 11,4 C 11,7 C 10,6 C 86 % 1010,7 hPa 0,0 l/m 0 min 0 min 158 W/m 16,1 km/h (3 Bft) 100,00 %
31.01.2020 11:58 11,4 C 11,7 C 10,6 C 86 % 1010,8 hPa 0,0 l/m 0 min 0 min 191 W/m 25,7 km/h (4 Bft) 100,00 %
31.01.2020 12:00 11,4 C 11,7 C 11,1 C 86 % 1010,7 hPa 0,0 l/m 0 min 0 min 192 W/m 25,7 km/h (4 Bft) 100,00 %
31.01.2020 12:02 11,4 C 11,7 C 10,6 C 86 % 1010,7 hPa 0,0 l/m 0 min 0 min 174 W/m 25,7 km/h (4 Bft) 100,00 %
31.01.2020 12:04 11,4 C 11,7 C 10,6 C 86 % 1010,6 hPa 0,0 l/m 0 min 0 min 153 W/m 19,3 km/h (3 Bft) 100,00 %
31.01.2020 12:08 11,5 C 11,7 C 11,1 C 87 % 1010,5 hPa 0,0 l/m 0 min 0 min 166 W/m 16,1 km/h (3 Bft) 100,00 %
31.01.2020 12:10 11,5 C 11,7 C 11,1 C 87 % 1010,6 hPa 0,0 l/m 0 min 0 min 188 W/m 25,7 km/h (4 Bft) 100,00 %
31.01.2020 12:12 11,6 C 11,7 C 11,1 C 87 % 1010,6 hPa 0,0 l/m 0 min 0 min 177 W/m 19,3 km/h (3 Bft) 100,00 %
31.01.2020 12:14 11,6 C 11,7 C 11,1 C 87 % 1010,6 hPa 0,0 l/m 0 min 0 min 181 W/m 32,2 km/h (5 Bft) 100,00 %
31.01.2020 12:16 11,6 C 11,7 C 11,1 C 87 % 1010,6 hPa 0,0 l/m 0 min 0 min 162 W/m 25,7 km/h (4 Bft) 100,00 %
31.01.2020 12:18 11,6 C 11,7 C 11,1 C 87 % 1010,6 hPa 0,0 l/m 0 min 0 min 166 W/m 19,3 km/h (3 Bft) 100,00 %
31.01.2020 12:20 11,6 C 11,7 C 11,7 C 87 % 1010,6 hPa 0,0 l/m 0 min 0 min 172 W/m 22,5 km/h (4 Bft) 100,00 %
31.01.2020 12:22 11,7 C 11,7 C 11,7 C 87 % 1010,6 hPa 0,0 l/m 0 min 0 min 144 W/m 19,3 km/h (3 Bft) 93,62 %
31.01.2020 12:24 11,7 C 12,2 C 11,7 C 88 % 1010,5 hPa 0,0 l/m 0 min 0 min 157 W/m 19,3 km/h (3 Bft) 100,00 %
31.01.2020 12:26 11,7 C 12,2 C 11,7 C 87 % 1010,5 hPa 0,0 l/m 0 min 0 min 170 W/m 22,5 km/h (4 Bft) 100,00 %
31.01.2020 12:28 11,8 C 12,2 C 11,7 C 88 % 1010,5 hPa 0,0 l/m 0 min 0 min 184 W/m 29,0 km/h (5 Bft) 100,00 %
31.01.2020 12:30 11,8 C 12,8 C 12,2 C 88 % 1010,5 hPa 0,0 l/m 0 min 0 min 177 W/m 12,9 km/h (3 Bft) 100,00 %
31.01.2020 12:32 11,8 C 12,8 C 12,2 C 88 % 1010,5 hPa 0,0 l/m 0 min 0 min 167 W/m 9,7 km/h (2 Bft) 97,87 %
31.01.2020 12:34 11,9 C 12,2 C 12,2 C 88 % 1010,5 hPa 0,0 l/m 0 min 0 min 141 W/m 16,1 km/h (3 Bft) 97,83 %
31.01.2020 12:36 11,9 C 12,2 C 11,7 C 88 % 1010,5 hPa 0,0 l/m 0 min 0 min 152 W/m 41,8 km/h (6 Bft) 97,96 %
31.01.2020 12:38 12,0 C 12,2 C 11,7 C 87 % 1010,5 hPa 0,0 l/m 0 min 0 min 156 W/m 29,0 km/h (5 Bft) 97,87 %
31.01.2020 12:40 12,0 C 12,2 C 11,7 C 87 % 1010,5 hPa 0,0 l/m 0 min 0 min 157 W/m 16,1 km/h (3 Bft) 97,87 %
31.01.2020 12:42 12,1 C 12,2 C 12,2 C 87 % 1010,5 hPa 0,0 l/m 0 min 0 min 168 W/m 29,0 km/h (5 Bft) 97,37 %
31.01.2020 12:44 12,1 C 12,2 C 12,2 C 87 % 1010,5 hPa 0,0 l/m 0 min 0 min 173 W/m 22,5 km/h (4 Bft) 95,74 %
31.01.2020 12:46 12,1 C 12,8 C 12,2 C 87 % 1010,6 hPa 0,0 l/m 2 min 0 min 206 W/m 16,1 km/h (3 Bft) 97,87 %
31.01.2020 12:48 12,2 C 12,8 C 12,2 C 87 % 1010,5 hPa 0,0 l/m 0 min 0 min 182 W/m 16,1 km/h (3 Bft) 93,48 %
31.01.2020 12:50 12,2 C 12,8 C 12,2 C 87 % 1010,5 hPa 0,0 l/m 0 min 0 min 181 W/m 16,1 km/h (3 Bft) 97,87 %
31.01.2020 12:52 12,3 C 12,8 C 12,2 C 87 % 1010,5 hPa 0,0 l/m 0 min 0 min 152 W/m 16,1 km/h (3 Bft) 95,74 %
31.01.2020 12:54 12,3 C 12,8 C 12,2 C 87 % 1010,5 hPa 0,0 l/m 0 min 0 min 158 W/m 25,7 km/h (4 Bft) 95,74 %
31.01.2020 12:56 12,3 C 12,8 C 12,2 C 87 % 1010,7 hPa 0,0 l/m 0 min 0 min 162 W/m 38,6 km/h (5 Bft) 95,74 %
31.01.2020 12:58 12,3 C 12,2 C 12,2 C 87 % 1010,3 hPa 0,0 l/m 0 min 0 min 161 W/m 29,0 km/h (5 Bft) 93,62 %
31.01.2020 13:00 12,4 C 12,8 C 12,2 C 87 % 1010,4 hPa 0,0 l/m 0 min 0 min 166 W/m 22,5 km/h (4 Bft) 95,65 %
31.01.2020 13:02 12,4 C 12,8 C 12,2 C 87 % 1010,4 hPa 0,0 l/m 0 min 0 min 166 W/m 19,3 km/h (3 Bft) 93,62 %
31.01.2020 13:04 12,4 C 12,8 C 12,2 C 87 % 1010,4 hPa 0,0 l/m 0 min 0 min 153 W/m 25,7 km/h (4 Bft) 90,57 %
31.01.2020 13:06 12,4 C 12,8 C 12,2 C 87 % 1010,3 hPa 0,0 l/m 0 min 0 min 174 W/m 16,1 km/h (3 Bft) 91,49 %
31.01.2020 13:08 12,5 C 12,8 C 12,2 C 87 % 1010,3 hPa 0,0 l/m 0 min 0 min 169 W/m 19,3 km/h (3 Bft) 94,00 %
31.01.2020 13:10 12,5 C 12,8 C 12,2 C 87 % 1010,2 hPa 0,0 l/m 0 min 0 min 163 W/m 25,7 km/h (4 Bft) 93,48 %
31.01.2020 13:12 12,6 C 12,8 C 12,2 C 87 % 1010,3 hPa 0,0 l/m 0 min 0 min 174 W/m 19,3 km/h (3 Bft) 93,62 %
31.01.2020 13:14 12,6 C 12,8 C 12,2 C 87 % 1010,2 hPa 0,0 l/m 0 min 0 min 200 W/m 25,7 km/h (4 Bft) 94,74 %
31.01.2020 13:16 12,6 C 13,3 C 12,2 C 87 % 1010,2 hPa 0,0 l/m 0 min 0 min 194 W/m 25,7 km/h (4 Bft) 94,34 %
31.01.2020 13:18 12,6 C 13,3 C 12,2 C 87 % 1010,1 hPa 0,0 l/m 0 min 0 min 188 W/m 19,3 km/h (3 Bft) 95,74 %
31.01.2020 13:20 12,7 C 13,3 C 12,2 C 87 % 1010,2 hPa 0,0 l/m 0 min 0 min 179 W/m 19,3 km/h (3 Bft) 96,00 %
31.01.2020 13:22 12,7 C 13,3 C 12,2 C 87 % 1010,2 hPa 0,0 l/m 0 min 0 min 172 W/m 29,0 km/h (5 Bft) 93,48 %
31.01.2020 13:24 12,7 C 13,3 C 12,2 C 87 % 1010,2 hPa 0,0 l/m 0 min 0 min 172 W/m 25,7 km/h (4 Bft) 94,74 %
31.01.2020 13:26 12,8 C 13,3 C 12,2 C 87 % 1010,2 hPa 0,0 l/m 0 min 0 min 187 W/m 29,0 km/h (5 Bft) 95,74 %
31.01.2020 13:28 12,8 C 12,8 C 12,2 C 87 % 1010,2 hPa 0,0 l/m 0 min 0 min 144 W/m 22,5 km/h (4 Bft) 96,23 %
31.01.2020 13:30 12,8 C 12,8 C 12,2 C 87 % 1010,2 hPa 0,0 l/m 0 min 0 min 136 W/m 32,2 km/h (5 Bft) 96,00 %
31.01.2020 13:32 12,8 C 12,8 C 12,2 C 87 % 1010,2 hPa 0,0 l/m 0 min 0 min 137 W/m 29,0 km/h (5 Bft) 94,74 %
31.01.2020 13:34 12,8 C 12,8 C 12,2 C 87 % 1010,2 hPa 0,0 l/m 0 min 0 min 134 W/m 22,5 km/h (4 Bft) 95,65 %
31.01.2020 13:36 12,8 C 12,8 C 12,2 C 87 % 1010,2 hPa 0,0 l/m 0 min 0 min 134 W/m 38,6 km/h (5 Bft) 96,23 %
31.01.2020 13:38 12,8 C 12,8 C 12,2 C 87 % 1010,2 hPa 0,0 l/m 0 min 0 min 125 W/m 16,1 km/h (3 Bft) 97,87 %
31.01.2020 13:40 12,8 C 12,8 C 12,2 C 87 % 1010,2 hPa 0,0 l/m 0 min 0 min 106 W/m 19,3 km/h (3 Bft) 95,74 %
31.01.2020 13:42 12,8 C 12,8 C 12,2 C 87 % 1010,1 hPa 0,0 l/m 0 min 0 min 111 W/m 22,5 km/h (4 Bft) 93,62 %
31.01.2020 13:44 12,9 C 12,8 C 12,2 C 87 % 1010,2 hPa 0,0 l/m 0 min 0 min 132 W/m 29,0 km/h (5 Bft) 95,92 %
31.01.2020 13:46 12,9 C 12,8 C 12,2 C 88 % 1010,1 hPa 0,0 l/m 0 min 0 min 138 W/m 12,9 km/h (3 Bft) 93,62 %
31.01.2020 13:48 12,9 C 12,8 C 12,2 C 88 % 1010,1 hPa 0,0 l/m 0 min 0 min 118 W/m 25,7 km/h (4 Bft) 96,30 %
31.01.2020 13:50 12,9 C 12,8 C 12,2 C 88 % 1010,1 hPa 0,0 l/m 0 min 0 min 108 W/m 19,3 km/h (3 Bft) 96,55 %
31.01.2020 13:52 12,9 C 12,8 C 12,2 C 88 % 1010,1 hPa 0,0 l/m 0 min 0 min 117 W/m 19,3 km/h (3 Bft) 97,87 %
31.01.2020 13:54 12,9 C 12,8 C 12,2 C 88 % 1010,1 hPa 0,0 l/m 0 min 0 min 122 W/m 22,5 km/h (4 Bft) 97,87 %
31.01.2020 13:56 12,9 C 12,8 C 12,2 C 88 % 1010,1 hPa 0,0 l/m 0 min 0 min 122 W/m 16,1 km/h (3 Bft) 100,00 %
31.01.2020 13:58 12,9 C 12,8 C 12,2 C 88 % 1010,1 hPa 0,0 l/m 0 min 0 min 102 W/m 16,1 km/h (3 Bft) 100,00 %
31.01.2020 14:00 13,0 C 12,8 C 12,2 C 88 % 1010,0 hPa 0,0 l/m 0 min 0 min 90 W/m 12,9 km/h (3 Bft) 100,00 %
31.01.2020 14:02 13,0 C 12,8 C 12,2 C 88 % 1010,0 hPa 0,0 l/m 0 min 0 min 92 W/m 19,3 km/h (3 Bft) 100,00 %
31.01.2020 14:04 13,0 C 12,8 C 12,2 C 88 % 1010,0 hPa 0,0 l/m 0 min 0 min 112 W/m 19,3 km/h (3 Bft) 100,00 %
31.01.2020 14:06 13,0 C 12,8 C 12,2 C 88 % 1009,9 hPa 0,0 l/m 0 min 0 min 98 W/m 22,5 km/h (4 Bft) 100,00 %
31.01.2020 14:08 13,0 C 12,8 C 12,2 C 88 % 1010,0 hPa 0,0 l/m 0 min 0 min 88 W/m 16,1 km/h (3 Bft) 100,00 %
31.01.2020 14:10 13,1 C 12,8 C 12,2 C 88 % 1010,0 hPa 0,0 l/m 0 min 0 min 92 W/m 19,3 km/h (3 Bft) 100,00 %
31.01.2020 14:12 13,1 C 12,8 C 12,2 C 88 % 1010,0 hPa 0,0 l/m 0 min 0 min 103 W/m 16,1 km/h (3 Bft) 97,87 %
31.01.2020 14:14 13,1 C 12,8 C 12,2 C 88 % 1010,0 hPa 0,0 l/m 0 min 0 min 100 W/m 22,5 km/h (4 Bft) 100,00 %
31.01.2020 14:16 13,1 C 12,8 C 12,2 C 88 % 1010,0 hPa 0,0 l/m 0 min 0 min 119 W/m 32,2 km/h (5 Bft) 100,00 %
31.01.2020 14:18 13,1 C 12,8 C 12,2 C 88 % 1010,0 hPa 0,0 l/m 0 min 0 min 112 W/m 22,5 km/h (4 Bft) 100,00 %
31.01.2020 14:20 13,1 C 12,8 C 12,2 C 88 % 1009,9 hPa 0,0 l/m 0 min 0 min 108 W/m 19,3 km/h (3 Bft) 100,00 %
31.01.2020 14:22 13,1 C 12,8 C 12,2 C 88 % 1010,0 hPa 0,0 l/m 0 min 0 min 109 W/m 19,3 km/h (3 Bft) 100,00 %
31.01.2020 14:24 13,1 C 12,8 C 12,2 C 88 % 1010,0 hPa 0,0 l/m 0 min 0 min 99 W/m 12,9 km/h (3 Bft) 100,00 %
31.01.2020 14:26 13,1 C 12,8 C 12,2 C 88 % 1010,1 hPa 0,0 l/m 0 min 0 min 91 W/m 16,1 km/h (3 Bft) 98,00 %
31.01.2020 14:28 13,2 C 12,8 C 12,2 C 88 % 1010,1 hPa 0,0 l/m 0 min 0 min 87 W/m 25,7 km/h (4 Bft) 100,00 %
31.01.2020 14:30 13,1 C 12,8 C 12,2 C 88 % 1010,0 hPa 0,0 l/m 0 min 0 min 79 W/m 22,5 km/h (4 Bft) 100,00 %
31.01.2020 14:32 13,2 C 12,8 C 12,2 C 88 % 1010,0 hPa 0,0 l/m 0 min 0 min 74 W/m 16,1 km/h (3 Bft) 100,00 %
31.01.2020 14:34 13,2 C 12,8 C 12,2 C 88 % 1010,1 hPa 0,0 l/m 0 min 0 min 70 W/m 22,5 km/h (4 Bft) 100,00 %
31.01.2020 14:36 13,2 C 12,8 C 12,2 C 88 % 1010,1 hPa 0,0 l/m 0 min 0 min 69 W/m 19,3 km/h (3 Bft) 100,00 %
31.01.2020 14:38 13,1 C 12,8 C 12,2 C 88 % 1010,0 hPa 0,0 l/m 0 min 0 min 67 W/m 29,0 km/h (5 Bft) 100,00 %
31.01.2020 14:40 13,2 C 12,8 C 12,2 C 88 % 1010,0 hPa 0,0 l/m 0 min 0 min 63 W/m 22,5 km/h (4 Bft) 100,00 %
31.01.2020 14:42 13,1 C 12,8 C 12,2 C 88 % 1009,9 hPa 0,0 l/m 0 min 0 min 69 W/m 35,4 km/h (5 Bft) 100,00 %
31.01.2020 14:44 13,2 C 12,8 C 12,2 C 88 % 1010,0 hPa 0,0 l/m 0 min 0 min 74 W/m 22,5 km/h (4 Bft) 97,83 %
31.01.2020 14:46 13,2 C 12,8 C 12,2 C 88 % 1010,0 hPa 0,0 l/m 0 min 0 min 68 W/m 16,1 km/h (3 Bft) 100,00 %
31.01.2020 14:48 13,2 C 12,8 C 12,2 C 88 % 1010,0 hPa 0,0 l/m 0 min 0 min 63 W/m 12,9 km/h (3 Bft) 100,00 %
31.01.2020 14:50 13,2 C 12,8 C 12,2 C 88 % 1009,9 hPa 0,0 l/m 0 min 0 min 72 W/m 22,5 km/h (4 Bft) 100,00 %
31.01.2020 14:52 13,2 C 12,8 C 12,2 C 88 % 1009,9 hPa 0,0 l/m 0 min 0 min 84 W/m 16,1 km/h (3 Bft) 100,00 %
31.01.2020 14:54 13,2 C 12,8 C 12,2 C 88 % 1009,8 hPa 0,0 l/m 0 min 0 min 83 W/m 22,5 km/h (4 Bft) 100,00 %
31.01.2020 14:56 13,2 C 12,8 C 12,2 C 88 % 1009,8 hPa 0,0 l/m 0 min 0 min 82 W/m 35,4 km/h (5 Bft) 100,00 %
31.01.2020 14:58 13,2 C 12,8 C 12,2 C 88 % 1009,7 hPa 0,0 l/m 0 min 0 min 84 W/m 29,0 km/h (5 Bft) 100,00 %
31.01.2020 15:00 13,2 C 12,8 C 12,2 C 88 % 1009,7 hPa 0,0 l/m 0 min 0 min 86 W/m 19,3 km/h (3 Bft) 98,00 %
31.01.2020 15:02 13,2 C 12,8 C 12,2 C 88 % 1009,8 hPa 0,0 l/m 0 min 0 min 87 W/m 29,0 km/h (5 Bft) 97,37 %
31.01.2020 15:04 13,2 C 12,8 C 12,2 C 88 % 1009,8 hPa 0,0 l/m 0 min 0 min 88 W/m 29,0 km/h (5 Bft) 97,87 %
31.01.2020 15:06 13,2 C 12,8 C 12,2 C 88 % 1009,8 hPa 0,0 l/m 0 min 0 min 77 W/m 19,3 km/h (3 Bft) 95,74 %
31.01.2020 15:08 13,3 C 12,8 C 12,2 C 88 % 1009,8 hPa 0,0 l/m 0 min 0 min 77 W/m 19,3 km/h (3 Bft) 97,83 %
31.01.2020 15:10 13,3 C 12,8 C 12,2 C 88 % 1009,8 hPa 0,0 l/m 0 min 0 min 69 W/m 29,0 km/h (5 Bft) 97,87 %
31.01.2020 15:12 13,3 C 12,8 C 12,2 C 88 % 1009,7 hPa 0,0 l/m 0 min 0 min 55 W/m 25,7 km/h (4 Bft) 98,00 %
31.01.2020 15:14 13,3 C 12,8 C 12,2 C 88 % 1009,7 hPa 0,0 l/m 0 min 0 min 53 W/m 25,7 km/h (4 Bft) 97,92 %
31.01.2020 15:16 13,3 C 12,8 C 12,2 C 88 % 1009,7 hPa 0,0 l/m 0 min 0 min 55 W/m 19,3 km/h (3 Bft) 97,87 %
31.01.2020 15:18 13,3 C 12,8 C 12,2 C 88 % 1009,7 hPa 0,0 l/m 0 min 0 min 58 W/m 22,5 km/h (4 Bft) 97,67 %
31.01.2020 15:20 13,3 C 12,8 C 12,2 C 87 % 1009,7 hPa 0,0 l/m 0 min 0 min 55 W/m 22,5 km/h (4 Bft) 95,92 %
31.01.2020 15:22 13,3 C 12,8 C 12,2 C 88 % 1009,7 hPa 0,0 l/m 0 min 0 min 52 W/m 29,0 km/h (5 Bft) 95,83 %
31.01.2020 15:24 13,3 C 12,8 C 12,2 C 87 % 1009,7 hPa 0,0 l/m 0 min 0 min 41 W/m 16,1 km/h (3 Bft) 97,87 %
31.01.2020 15:26 13,3 C 12,8 C 12,2 C 88 % 1009,8 hPa 0,0 l/m 0 min 0 min 37 W/m 16,1 km/h (3 Bft) 97,67 %
31.01.2020 15:28 13,3 C 12,8 C 12,2 C 88 % 1009,8 hPa 0,0 l/m 0 min 0 min 40 W/m 22,5 km/h (4 Bft) 98,00 %
31.01.2020 15:30 13,3 C 12,8 C 12,2 C 88 % 1009,8 hPa 0,0 l/m 0 min 0 min 37 W/m 12,9 km/h (3 Bft) 95,74 %
31.01.2020 15:32 13,3 C 12,8 C 12,2 C 88 % 1009,8 hPa 0,0 l/m 0 min 0 min 42 W/m 16,1 km/h (3 Bft) 97,87 %
31.01.2020 15:34 13,2 C 12,8 C 12,2 C 88 % 1009,7 hPa 0,0 l/m 0 min 0 min 44 W/m 19,3 km/h (3 Bft) 97,87 %
31.01.2020 15:36 13,2 C 12,8 C 12,2 C 88 % 1009,8 hPa 0,0 l/m 0 min 0 min 41 W/m 19,3 km/h (3 Bft) 97,87 %
31.01.2020 15:38 13,2 C 12,8 C 12,2 C 88 % 1009,7 hPa 0,0 l/m 0 min 0 min 35 W/m 22,5 km/h (4 Bft) 97,67 %
31.01.2020 15:40 13,2 C 12,8 C 12,2 C 88 % 1009,8 hPa 0,0 l/m 0 min 0 min 33 W/m 25,7 km/h (4 Bft) 96,00 %
31.01.2020 15:42 13,2 C 12,8 C 12,2 C 88 % 1009,8 hPa 0,0 l/m 0 min 0 min 33 W/m 16,1 km/h (3 Bft) 97,87 %
31.01.2020 15:44 13,2 C 12,8 C 12,2 C 88 % 1009,7 hPa 0,0 l/m 0 min 0 min 33 W/m 25,7 km/h (4 Bft) 100,00 %
31.01.2020 15:46 13,2 C 12,8 C 12,2 C 88 % 1009,7 hPa 0,0 l/m 0 min 0 min 34 W/m 25,7 km/h (4 Bft) 95,74 %
31.01.2020 15:48 13,2 C 12,8 C 12,2 C 88 % 1009,8 hPa 0,0 l/m 0 min 0 min 34 W/m 16,1 km/h (3 Bft) 97,92 %
31.01.2020 15:50 13,2 C 12,8 C 12,2 C 88 % 1009,7 hPa 0,0 l/m 0 min 0 min 35 W/m 12,9 km/h (3 Bft) 100,00 %
31.01.2020 15:52 13,2 C 12,8 C 12,2 C 88 % 1009,7 hPa 0,0 l/m 0 min 0 min 36 W/m 22,5 km/h (4 Bft) 97,87 %
31.01.2020 15:54 13,2 C 12,8 C 12,2 C 88 % 1009,7 hPa 0,0 l/m 0 min 0 min 35 W/m 22,5 km/h (4 Bft) 100,00 %
31.01.2020 15:56 13,2 C 12,8 C 12,2 C 88 % 1009,8 hPa 0,0 l/m 0 min 0 min 33 W/m 16,1 km/h (3 Bft) 100,00 %
31.01.2020 15:58 13,2 C 12,8 C 12,2 C 88 % 1009,8 hPa 0,0 l/m 0 min 0 min 29 W/m 19,3 km/h (3 Bft) 97,92 %
31.01.2020 16:00 13,2 C 12,8 C 12,2 C 88 % 1009,8 hPa 0,0 l/m 0 min 0 min 29 W/m 19,3 km/h (3 Bft) 100,00 %
31.01.2020 16:02 13,2 C 12,8 C 12,2 C 88 % 1009,8 hPa 0,0 l/m 0 min 0 min 29 W/m 12,9 km/h (3 Bft) 97,87 %
31.01.2020 16:04 13,2 C 12,2 C 11,7 C 88 % 1009,8 hPa 0,0 l/m 0 min 0 min 25 W/m 19,3 km/h (3 Bft) 97,67 %
31.01.2020 16:06 13,2 C 12,8 C 11,7 C 88 % 1009,8 hPa 0,0 l/m 0 min 0 min 25 W/m 16,1 km/h (3 Bft) 95,65 %
31.01.2020 16:08 13,2 C 12,2 C 11,7 C 88 % 1009,7 hPa 0,0 l/m 0 min 0 min 24 W/m 25,7 km/h (4 Bft) 93,62 %
31.01.2020 16:10 13,2 C 12,2 C 11,7 C 88 % 1009,8 hPa 0,0 l/m 0 min 0 min 26 W/m 19,3 km/h (3 Bft) 95,74 %
31.01.2020 16:12 13,2 C 12,8 C 12,2 C 88 % 1009,7 hPa 0,0 l/m 0 min 0 min 27 W/m 22,5 km/h (4 Bft) 95,74 %
31.01.2020 16:14 13,2 C 12,8 C 12,2 C 88 % 1009,7 hPa 0,0 l/m 0 min 0 min 37 W/m 19,3 km/h (3 Bft) 95,74 %
31.01.2020 16:16 13,2 C 12,8 C 12,2 C 88 % 1009,6 hPa 0,0 l/m 0 min 0 min 33 W/m 22,5 km/h (4 Bft) 95,74 %
31.01.2020 16:18 13,2 C 12,8 C 12,2 C 88 % 1009,7 hPa 0,0 l/m 0 min 0 min 28 W/m 29,0 km/h (5 Bft) 95,65 %
31.01.2020 16:20 13,2 C 12,8 C 12,2 C 88 % 1009,6 hPa 0,0 l/m 0 min 0 min 32 W/m 19,3 km/h (3 Bft) 95,74 %
31.01.2020 16:22 13,2 C 12,8 C 12,2 C 88 % 1009,5 hPa 0,0 l/m 0 min 0 min 32 W/m 29,0 km/h (5 Bft) 94,00 %
31.01.2020 16:24 13,2 C 12,8 C 11,7 C 88 % 1009,5 hPa 0,0 l/m 0 min 0 min 40 W/m 35,4 km/h (5 Bft) 95,83 %
31.01.2020 16:26 13,2 C 12,8 C 11,7 C 88 % 1009,4 hPa 0,0 l/m 0 min 0 min 30 W/m 19,3 km/h (3 Bft) 95,74 %
31.01.2020 16:28 13,2 C 12,2 C 11,7 C 88 % 1009,5 hPa 0,0 l/m 0 min 0 min 24 W/m 12,9 km/h (3 Bft) 95,35 %
31.01.2020 16:30 13,2 C 12,2 C 11,7 C 88 % 1009,5 hPa 0,0 l/m 0 min 0 min 18 W/m 12,9 km/h (3 Bft) 95,92 %
31.01.2020 16:32 13,2 C 12,2 C 11,7 C 88 % 1009,6 hPa 0,0 l/m 0 min 0 min 22 W/m 12,9 km/h (3 Bft) 93,62 %
31.01.2020 16:34 13,2 C 12,2 C 11,7 C 88 % 1009,6 hPa 0,0 l/m 0 min 0 min 24 W/m 22,5 km/h (4 Bft) 95,74 %
31.01.2020 16:36 13,1 C 12,2 C 11,7 C 88 % 1009,7 hPa 0,0 l/m 0 min 0 min 25 W/m 22,5 km/h (4 Bft) 93,75 %
31.01.2020 16:38 13,1 C 12,2 C 11,7 C 88 % 1009,7 hPa 0,0 l/m 0 min 0 min 22 W/m 19,3 km/h (3 Bft) 95,74 %
31.01.2020 16:40 13,1 C 12,2 C 11,7 C 88 % 1009,7 hPa 0,0 l/m 0 min 0 min 22 W/m 19,3 km/h (3 Bft) 95,65 %
31.01.2020 16:42 13,1 C 12,2 C 11,7 C 88 % 1009,7 hPa 0,0 l/m 0 min 0 min 19 W/m 19,3 km/h (3 Bft) 95,74 %
31.01.2020 16:44 13,1 C 12,2 C 11,7 C 88 % 1009,7 hPa 0,0 l/m 0 min 0 min 16 W/m 19,3 km/h (3 Bft) 95,74 %
31.01.2020 16:46 13,1 C 12,2 C 11,7 C 88 % 1009,7 hPa 0,0 l/m 0 min 0 min 14 W/m 16,1 km/h (3 Bft) 95,74 %
31.01.2020 16:48 13,1 C 12,2 C 11,7 C 88 % 1009,7 hPa 0,0 l/m 0 min 0 min 13 W/m 35,4 km/h (5 Bft) 95,74 %
31.01.2020 16:50 13,1 C 12,2 C 11,7 C 88 % 1009,7 hPa 0,0 l/m 0 min 0 min 15 W/m 16,1 km/h (3 Bft) 97,87 %
31.01.2020 16:52 13,1 C 12,2 C 11,7 C 88 % 1009,7 hPa 0,0 l/m 0 min 0 min 11 W/m 12,9 km/h (3 Bft) 97,83 %
31.01.2020 16:54 13,0 C 12,2 C 11,7 C 88 % 1009,8 hPa 0,0 l/m 0 min 0 min 10 W/m 12,9 km/h (3 Bft) 97,67 %
31.01.2020 16:56 13,0 C 12,2 C 11,7 C 88 % 1009,8 hPa 0,0 l/m 0 min 0 min 9 W/m 16,1 km/h (3 Bft) 97,87 %
31.01.2020 16:58 13,0 C 12,2 C 11,7 C 88 % 1009,8 hPa 0,0 l/m 0 min 0 min 11 W/m 16,1 km/h (3 Bft) 97,87 %
31.01.2020 17:00 13,0 C 12,2 C 11,7 C 88 % 1009,8 hPa 0,0 l/m 0 min 0 min 9 W/m 16,1 km/h (3 Bft) 97,87 %
31.01.2020 17:02 13,0 C 12,2 C 11,7 C 88 % 1009,8 hPa 0,0 l/m 0 min 0 min 5 W/m 22,5 km/h (4 Bft) 98,00 %
31.01.2020 17:04 12,9 C 12,2 C 11,7 C 88 % 1009,9 hPa 0,0 l/m 0 min 0 min 5 W/m 16,1 km/h (3 Bft) 100,00 %
31.01.2020 17:06 12,9 C 12,2 C 11,7 C 88 % 1010,0 hPa 0,0 l/m 0 min 0 min 1 W/m 19,3 km/h (3 Bft) 100,00 %
31.01.2020 17:08 12,9 C 12,2 C 11,7 C 88 % 1009,9 hPa 0,0 l/m 0 min 0 min 0 W/m 19,3 km/h (3 Bft) 100,00 %
31.01.2020 17:10 12,9 C 12,2 C 11,7 C 88 % 1009,9 hPa 0,0 l/m 0 min 0 min 0 W/m 19,3 km/h (3 Bft) 97,87 %
31.01.2020 17:12 12,9 C 12,2 C 11,7 C 88 % 1009,9 hPa 0,0 l/m 0 min 0 min 4 W/m 35,4 km/h (5 Bft) 100,00 %
31.01.2020 17:14 12,9 C 12,2 C 11,7 C 88 % 1010,0 hPa 0,0 l/m 0 min 0 min 0 W/m 19,3 km/h (3 Bft) 100,00 %
31.01.2020 17:16 12,9 C 12,2 C 11,7 C 88 % 1010,0 hPa 0,0 l/m 0 min 0 min 0 W/m 25,7 km/h (4 Bft) 100,00 %
31.01.2020 17:18 12,9 C 12,2 C 11,7 C 88 % 1010,1 hPa 0,0 l/m 0 min 0 min 0 W/m 19,3 km/h (3 Bft) 100,00 %
31.01.2020 17:20 12,9 C 12,2 C 11,7 C 88 % 1010,1 hPa 0,0 l/m 0 min 0 min 0 W/m 19,3 km/h (3 Bft) 100,00 %
31.01.2020 17:22 12,8 C 12,2 C 11,7 C 88 % 1010,1 hPa 0,0 l/m 0 min 0 min 0 W/m 22,5 km/h (4 Bft) 98,00 %
31.01.2020 17:24 12,8 C 12,2 C 11,7 C 88 % 1010,1 hPa 0,0 l/m 0 min 0 min 0 W/m 22,5 km/h (4 Bft) 100,00 %
31.01.2020 17:26 12,8 C 12,2 C 11,7 C 88 % 1010,1 hPa 0,0 l/m 0 min 0 min 0 W/m 16,1 km/h (3 Bft) 100,00 %
31.01.2020 17:28 12,8 C 12,2 C 11,7 C 88 % 1010,1 hPa 0,0 l/m 0 min 0 min 0 W/m 19,3 km/h (3 Bft) 100,00 %
31.01.2020 17:30 12,8 C 12,2 C 11,7 C 88 % 1010,1 hPa 0,0 l/m 0 min 0 min 0 W/m 29,0 km/h (5 Bft) 97,96 %
31.01.2020 17:32 12,8 C 12,2 C 11,7 C 88 % 1010,1 hPa 0,0 l/m 0 min 0 min 0 W/m 16,1 km/h (3 Bft) 97,87 %
31.01.2020 17:34 12,8 C 12,2 C 11,7 C 88 % 1010,1 hPa 0,0 l/m 0 min 0 min 0 W/m 16,1 km/h (3 Bft) 97,92 %
31.01.2020 17:36 12,8 C 12,2 C 11,7 C 88 % 1010,1 hPa 0,0 l/m 0 min 0 min 0 W/m 29,0 km/h (5 Bft) 97,87 %
31.01.2020 17:38 12,8 C 12,2 C 11,7 C 88 % 1010,0 hPa 0,0 l/m 0 min 0 min 0 W/m 29,0 km/h (5 Bft) 95,35 %
31.01.2020 17:40 12,8 C 12,2 C 11,7 C 88 % 1010,1 hPa 0,0 l/m 0 min 0 min 0 W/m 19,3 km/h (3 Bft) 97,83 %
31.01.2020 17:42 12,8 C 12,2 C 11,7 C 88 % 1010,1 hPa 0,0 l/m 0 min 0 min 0 W/m 19,3 km/h (3 Bft) 95,74 %
31.01.2020 17:44 12,8 C 12,2 C 11,7 C 87 % 1010,1 hPa 0,0 l/m 0 min 0 min 0 W/m 19,3 km/h (3 Bft) 95,74 %
31.01.2020 17:46 12,8 C 12,2 C 11,7 C 87 % 1010,1 hPa 0,0 l/m 0 min 0 min 0 W/m 19,3 km/h (3 Bft) 97,87 %
31.01.2020 17:48 12,8 C 12,2 C 11,7 C 87 % 1010,2 hPa 0,0 l/m 0 min 0 min 0 W/m 22,5 km/h (4 Bft) 98,00 %
31.01.2020 17:50 12,8 C 12,2 C 11,7 C 87 % 1010,2 hPa 0,0 l/m 0 min 0 min 0 W/m 22,5 km/h (4 Bft) 97,83 %
31.01.2020 17:52 12,7 C 12,2 C 11,7 C 87 % 1010,2 hPa 0,0 l/m 0 min 0 min 0 W/m 22,5 km/h (4 Bft) 97,87 %
31.01.2020 17:54 12,7 C 12,2 C 11,7 C 87 % 1010,2 hPa 0,0 l/m 0 min 0 min 0 W/m 22,5 km/h (4 Bft) 97,87 %
31.01.2020 17:56 12,7 C 12,2 C 11,7 C 87 % 1010,3 hPa 0,0 l/m 0 min 0 min 0 W/m 12,9 km/h (3 Bft) 97,92 %
31.01.2020 17:58 12,7 C 12,2 C 11,7 C 87 % 1010,1 hPa 0,0 l/m 0 min 0 min 0 W/m 22,5 km/h (4 Bft) 95,74 %
31.01.2020 18:00 12,7 C 12,2 C 11,1 C 87 % 1010,1 hPa 0,0 l/m 0 min 0 min 0 W/m 19,3 km/h (3 Bft) 95,74 %
31.01.2020 18:02 12,7 C 12,2 C 11,1 C 87 % 1010,1 hPa 0,0 l/m 0 min 0 min 0 W/m 25,7 km/h (4 Bft) 97,83 %
31.01.2020 18:04 12,7 C 12,2 C 11,7 C 87 % 1010,1 hPa 0,0 l/m 0 min 0 min 0 W/m 22,5 km/h (4 Bft) 97,87 %
31.01.2020 18:06 12,7 C 12,2 C 11,1 C 87 % 1010,1 hPa 0,0 l/m 0 min 0 min 0 W/m 25,7 km/h (4 Bft) 97,67 %
31.01.2020 18:08 12,7 C 12,2 C 11,7 C 87 % 1010,1 hPa 0,0 l/m 0 min 0 min 0 W/m 22,5 km/h (4 Bft) 97,87 %
31.01.2020 18:10 12,7 C 12,2 C 11,7 C 87 % 1010,0 hPa 0,0 l/m 0 min 0 min 0 W/m 41,8 km/h (6 Bft) 97,87 %
31.01.2020 18:12 12,7 C 12,2 C 11,7 C 87 % 1010,0 hPa 0,0 l/m 0 min 0 min 0 W/m 22,5 km/h (4 Bft) 97,87 %
31.01.2020 18:14 12,7 C 12,2 C 11,7 C 87 % 1009,9 hPa 0,0 l/m 0 min 0 min 0 W/m 19,3 km/h (3 Bft) 95,74 %
31.01.2020 18:16 12,7 C 12,2 C 11,7 C 87 % 1009,9 hPa 0,0 l/m 0 min 0 min 0 W/m 25,7 km/h (4 Bft) 100,00 %
31.01.2020 18:18 12,7 C 12,2 C 11,1 C 87 % 1009,9 hPa 0,0 l/m 0 min 0 min 0 W/m 22,5 km/h (4 Bft) 100,00 %
31.01.2020 18:20 12,7 C 12,2 C 11,7 C 87 % 1009,9 hPa 0,0 l/m 0 min 0 min 0 W/m 25,7 km/h (4 Bft) 100,00 %
31.01.2020 18:22 12,7 C 12,2 C 11,1 C 87 % 1010,1 hPa 0,0 l/m 0 min 0 min 0 W/m 16,1 km/h (3 Bft) 100,00 %
31.01.2020 18:24 12,7 C 12,2 C 11,1 C 87 % 1010,2 hPa 0,0 l/m 0 min 0 min 0 W/m 22,5 km/h (4 Bft) 97,14 %
31.01.2020 18:26 12,7 C 12,2 C 11,1 C 87 % 1010,2 hPa 0,0 l/m 0 min 0 min 0 W/m 16,1 km/h (3 Bft) 100,00 %
31.01.2020 18:28 12,7 C 11,7 C 11,1 C 87 % 1010,4 hPa 0,0 l/m 0 min 0 min 0 W/m 19,3 km/h (3 Bft) 100,00 %
31.01.2020 18:30 12,7 C 11,7 C 11,1 C 87 % 1010,4 hPa 0,0 l/m 0 min 0 min 0 W/m 22,5 km/h (4 Bft) 100,00 %
31.01.2020 18:32 12,7 C 12,2 C 11,1 C 87 % 1010,4 hPa 0,0 l/m 0 min 0 min 0 W/m 32,2 km/h (5 Bft) 100,00 %
31.01.2020 18:34 12,7 C 11,7 C 11,1 C 87 % 1010,4 hPa 0,0 l/m 0 min 0 min 0 W/m 16,1 km/h (3 Bft) 97,87 %
31.01.2020 18:36 12,7 C 12,2 C 11,1 C 87 % 1010,4 hPa 0,0 l/m 0 min 0 min 0 W/m 25,7 km/h (4 Bft) 97,87 %
31.01.2020 18:38 12,7 C 12,2 C 11,1 C 87 % 1010,5 hPa 0,0 l/m 0 min 0 min 0 W/m 19,3 km/h (3 Bft) 100,00 %
31.01.2020 18:40 12,7 C 11,7 C 11,1 C 87 % 1010,4 hPa 0,0 l/m 0 min 0 min 0 W/m 19,3 km/h (3 Bft) 100,00 %
31.01.2020 18:42 12,7 C 11,7 C 11,1 C 87 % 1010,3 hPa 0,0 l/m 0 min 0 min 0 W/m 12,9 km/h (3 Bft) 97,87 %
31.01.2020 18:44 12,6 C 11,7 C 11,1 C 87 % 1010,2 hPa 0,0 l/m 0 min 0 min 0 W/m 22,5 km/h (4 Bft) 95,74 %
31.01.2020 18:46 12,6 C 11,7 C 11,1 C 87 % 1010,2 hPa 0,0 l/m 0 min 0 min 0 W/m 29,0 km/h (5 Bft) 100,00 %
31.01.2020 18:48 12,6 C 11,7 C 11,1 C 87 % 1010,2 hPa 0,0 l/m 0 min 0 min 0 W/m 29,0 km/h (5 Bft) 100,00 %
31.01.2020 18:50 12,6 C 11,7 C 11,1 C 87 % 1010,1 hPa 0,0 l/m 0 min 0 min 0 W/m 12,9 km/h (3 Bft) 100,00 %
31.01.2020 18:52 12,6 C 11,7 C 11,1 C 87 % 1010,1 hPa 0,0 l/m 0 min 0 min 0 W/m 16,1 km/h (3 Bft) 95,74 %
31.01.2020 18:54 12,6 C 11,7 C 11,1 C 87 % 1010,1 hPa 0,0 l/m 0 min 0 min 0 W/m 22,5 km/h (4 Bft) 97,87 %
31.01.2020 18:56 12,6 C 11,7 C 11,1 C 87 % 1010,1 hPa 0,0 l/m 0 min 0 min 0 W/m 19,3 km/h (3 Bft) 100,00 %
31.01.2020 18:58 12,6 C 12,2 C 11,1 C 87 % 1010,1 hPa 0,0 l/m 0 min 0 min 0 W/m 35,4 km/h (5 Bft) 97,87 %
31.01.2020 19:00 12,6 C 12,2 C 11,7 C 87 % 1010,1 hPa 0,0 l/m 0 min 0 min 0 W/m 32,2 km/h (5 Bft) 95,65 %
31.01.2020 19:02 12,6 C 11,7 C 11,1 C 87 % 1010,0 hPa 0,0 l/m 0 min 0 min 0 W/m 19,3 km/h (3 Bft) 97,87 %
31.01.2020 19:04 12,6 C 11,7 C 11,1 C 87 % 1010,0 hPa 0,0 l/m 0 min 0 min 0 W/m 25,7 km/h (4 Bft) 95,74 %
31.01.2020 19:06 12,6 C 11,7 C 11,1 C 87 % 1009,8 hPa 0,0 l/m 0 min 0 min 0 W/m 35,4 km/h (5 Bft) 97,87 %
31.01.2020 19:08 12,6 C 11,7 C 11,7 C 87 % 1009,7 hPa 0,0 l/m 0 min 0 min 0 W/m 29,0 km/h (5 Bft) 97,87 %
31.01.2020 19:10 12,6 C 11,7 C 11,1 C 87 % 1009,7 hPa 0,0 l/m 0 min 0 min 0 W/m 22,5 km/h (4 Bft) 97,87 %
31.01.2020 19:12 12,6 C 11,7 C 11,1 C 87 % 1009,5 hPa 0,0 l/m 0 min 0 min 0 W/m 22,5 km/h (4 Bft) 95,65 %
31.01.2020 19:14 12,6 C 11,7 C 11,1 C 87 % 1009,5 hPa 0,0 l/m 0 min 0 min 0 W/m 35,4 km/h (5 Bft) 93,62 %
31.01.2020 19:16 12,6 C 11,7 C 11,1 C 87 % 1009,5 hPa 0,0 l/m 0 min 0 min 0 W/m 22,5 km/h (4 Bft) 95,74 %
31.01.2020 19:18 12,6 C 11,7 C 11,1 C 87 % 1009,6 hPa 0,0 l/m 0 min 0 min 0 W/m 29,0 km/h (5 Bft) 95,74 %
31.01.2020 19:20 12,6 C 11,7 C 11,1 C 86 % 1009,7 hPa 0,0 l/m 0 min 0 min 0 W/m 32,2 km/h (5 Bft) 95,74 %
31.01.2020 19:22 12,6 C 11,7 C 11,1 C 87 % 1009,7 hPa 0,0 l/m 0 min 0 min 0 W/m 29,0 km/h (5 Bft) 95,74 %
31.01.2020 19:24 12,6 C 11,7 C 11,1 C 87 % 1009,7 hPa 0,0 l/m 0 min 0 min 0 W/m 29,0 km/h (5 Bft) 95,65 %
31.01.2020 19:26 12,6 C 11,7 C 11,1 C 87 % 1009,7 hPa 0,0 l/m 0 min 0 min 0 W/m 19,3 km/h (3 Bft) 95,74 %
31.01.2020 19:28 12,6 C 11,7 C 11,1 C 87 % 1009,7 hPa 0,0 l/m 0 min 0 min 0 W/m 19,3 km/h (3 Bft) 93,62 %
31.01.2020 19:30 12,5 C 11,7 C 11,1 C 87 % 1009,6 hPa 0,0 l/m 0 min 0 min 0 W/m 22,5 km/h (4 Bft) 97,87 %
31.01.2020 19:32 12,5 C 11,7 C 11,1 C 87 % 1009,5 hPa 0,0 l/m 0 min 0 min 0 W/m 25,7 km/h (4 Bft) 97,87 %
31.01.2020 19:34 12,5 C 11,7 C 11,1 C 87 % 1009,5 hPa 0,0 l/m 0 min 0 min 0 W/m 22,5 km/h (4 Bft) 95,74 %
31.01.2020 19:36 12,5 C 11,7 C 11,1 C 87 % 1009,5 hPa 0,0 l/m 0 min 0 min 0 W/m 25,7 km/h (4 Bft) 93,48 %
31.01.2020 19:38 12,5 C 11,7 C 11,1 C 87 % 1009,7 hPa 0,0 l/m 0 min 0 min 0 W/m 48,3 km/h (6 Bft) 93,62 %
31.01.2020 19:40 12,5 C 11,7 C 11,1 C 87 % 1009,6 hPa 0,0 l/m 0 min 0 min 0 W/m 38,6 km/h (5 Bft) 97,87 %
31.01.2020 19:42 12,5 C 11,7 C 11,1 C 87 % 1009,6 hPa 0,0 l/m 0 min 0 min 0 W/m 29,0 km/h (5 Bft) 97,87 %
31.01.2020 19:44 12,5 C 11,7 C 11,1 C 87 % 1009,6 hPa 0,0 l/m 0 min 0 min 0 W/m 19,3 km/h (3 Bft) 97,87 %
31.01.2020 19:46 12,5 C 11,7 C 11,1 C 87 % 1009,7 hPa 0,0 l/m 0 min 0 min 0 W/m 29,0 km/h (5 Bft) 95,74 %
31.01.2020 19:48 12,5 C 11,7 C 11,1 C 87 % 1009,7 hPa 0,0 l/m 0 min 0 min 0 W/m 35,4 km/h (5 Bft) 97,83 %
31.01.2020 19:50 12,5 C 11,7 C 11,1 C 87 % 1009,5 hPa 0,0 l/m 0 min 0 min 0 W/m 22,5 km/h (4 Bft) 97,87 %
31.01.2020 19:52 12,5 C 11,7 C 11,1 C 87 % 1009,4 hPa 0,0 l/m 0 min 0 min 0 W/m 25,7 km/h (4 Bft) 97,87 %
31.01.2020 19:54 12,4 C 11,7 C 11,1 C 87 % 1009,3 hPa 0,0 l/m 0 min 0 min 0 W/m 32,2 km/h (5 Bft) 97,87 %
31.01.2020 19:56 12,4 C 11,7 C 11,1 C 87 % 1009,2 hPa 0,0 l/m 0 min 0 min 0 W/m 19,3 km/h (3 Bft) 97,87 %
31.01.2020 19:58 12,4 C 11,7 C 11,1 C 87 % 1009,2 hPa 0,0 l/m 0 min 0 min 0 W/m 29,0 km/h (5 Bft) 100,00 %
31.01.2020 20:00 12,4 C 11,7 C 11,1 C 87 % 1009,2 hPa 0,0 l/m 0 min 0 min 0 W/m 29,0 km/h (5 Bft) 97,83 %
31.01.2020 20:02 12,4 C 11,7 C 11,1 C 87 % 1009,1 hPa 0,0 l/m 0 min 0 min 0 W/m 35,4 km/h (5 Bft) 95,74 %
31.01.2020 20:04 12,4 C 11,7 C 11,1 C 86 % 1009,1 hPa 0,0 l/m 0 min 0 min 0 W/m 32,2 km/h (5 Bft) 97,87 %
31.01.2020 20:06 12,4 C 11,7 C 11,1 C 86 % 1009,1 hPa 0,0 l/m 0 min 0 min 0 W/m 25,7 km/h (4 Bft) 97,87 %
31.01.2020 20:08 12,3 C 11,7 C 11,1 C 86 % 1009,1 hPa 0,0 l/m 0 min 0 min 0 W/m 22,5 km/h (4 Bft) 95,74 %
31.01.2020 20:10 12,3 C 11,7 C 10,6 C 87 % 1009,1 hPa 0,0 l/m 0 min 0 min 0 W/m 25,7 km/h (4 Bft) 93,48 %
31.01.2020 20:12 12,3 C 11,7 C 10,6 C 87 % 1009,2 hPa 0,0 l/m 0 min 0 min 0 W/m 22,5 km/h (4 Bft) 95,74 %
31.01.2020 20:14 12,3 C 11,7 C 10,6 C 87 % 1009,2 hPa 0,0 l/m 0 min 0 min 0 W/m 22,5 km/h (4 Bft) 95,74 %
31.01.2020 20:16 12,3 C 11,7 C 10,6 C 87 % 1009,2 hPa 0,0 l/m 0 min 0 min 0 W/m 19,3 km/h (3 Bft) 91,49 %
31.01.2020 20:18 12,3 C 11,7 C 10,6 C 87 % 1009,3 hPa 0,0 l/m 0 min 0 min 0 W/m 29,0 km/h (5 Bft) 95,74 %
31.01.2020 20:20 12,2 C 11,7 C 10,6 C 87 % 1009,4 hPa 0,0 l/m 0 min 0 min 0 W/m 25,7 km/h (4 Bft) 97,87 %
31.01.2020 20:22 12,2 C 11,7 C 10,6 C 87 % 1009,4 hPa 0,0 l/m 0 min 0 min 0 W/m 22,5 km/h (4 Bft) 97,83 %
31.01.2020 20:24 12,2 C 11,7 C 10,6 C 87 % 1009,4 hPa 0,0 l/m 0 min 0 min 0 W/m 25,7 km/h (4 Bft) 97,87 %
31.01.2020 20:26 12,2 C 11,7 C 10,6 C 87 % 1009,4 hPa 0,0 l/m 0 min 0 min 0 W/m 19,3 km/h (3 Bft) 97,87 %
31.01.2020 20:28 12,2 C 11,7 C 10,6 C 87 % 1009,3 hPa 0,0 l/m 0 min 0 min 0 W/m 22,5 km/h (4 Bft) 97,87 %
31.01.2020 20:30 12,2 C 11,1 C 10,6 C 87 % 1009,3 hPa 0,0 l/m 0 min 0 min 0 W/m 19,3 km/h (3 Bft) 97,87 %
31.01.2020 20:32 12,2 C 11,7 C 10,6 C 87 % 1009,3 hPa 0,0 l/m 0 min 0 min 0 W/m 29,0 km/h (5 Bft) 97,87 %
31.01.2020 20:34 12,2 C 11,7 C 10,6 C 88 % 1009,3 hPa 0,0 l/m 0 min 0 min 0 W/m 32,2 km/h (5 Bft) 93,48 %
31.01.2020 20:36 12,2 C 11,1 C 10,6 C 88 % 1009,3 hPa 0,0 l/m 0 min 0 min 0 W/m 12,9 km/h (3 Bft) 97,87 %
31.01.2020 20:38 12,2 C 11,1 C 10,6 C 88 % 1009,3 hPa 0,0 l/m 0 min 0 min 0 W/m 16,1 km/h (3 Bft) 97,87 %
31.01.2020 20:40 12,1 C 11,1 C 10,6 C 88 % 1009,3 hPa 0,0 l/m 0 min 0 min 0 W/m 22,5 km/h (4 Bft) 97,87 %
31.01.2020 20:42 12,1 C 11,1 C 10,6 C 88 % 1009,2 hPa 0,0 l/m 0 min 0 min 0 W/m 25,7 km/h (4 Bft) 97,87 %
31.01.2020 20:44 12,1 C 11,1 C 10,6 C 88 % 1009,3 hPa 0,0 l/m 0 min 0 min 0 W/m 22,5 km/h (4 Bft) 95,65 %
31.01.2020 20:46 12,1 C 11,1 C 10,6 C 88 % 1009,3 hPa 0,0 l/m 0 min 0 min 0 W/m 35,4 km/h (5 Bft) 97,87 %
31.01.2020 20:48 12,1 C 11,1 C 10,6 C 88 % 1009,2 hPa 0,0 l/m 0 min 0 min 0 W/m 25,7 km/h (4 Bft) 97,87 %
31.01.2020 20:50 12,1 C 11,1 C 10,6 C 88 % 1009,1 hPa 0,0 l/m 0 min 0 min 0 W/m 29,0 km/h (5 Bft) 97,87 %
31.01.2020 20:52 12,1 C 11,1 C 10,6 C 88 % 1009,1 hPa 0,0 l/m 0 min 0 min 0 W/m 25,7 km/h (4 Bft) 100,00 %
31.01.2020 20:54 12,1 C 11,1 C 10,6 C 88 % 1009,1 hPa 0,0 l/m 0 min 0 min 0 W/m 25,7 km/h (4 Bft) 100,00 %
31.01.2020 20:56 12,1 C 11,1 C 10,6 C 88 % 1009,1 hPa 0,0 l/m 0 min 0 min 0 W/m 29,0 km/h (5 Bft) 95,65 %
31.01.2020 20:58 12,1 C 11,1 C 10,6 C 88 % 1009,1 hPa 0,0 l/m 0 min 0 min 0 W/m 25,7 km/h (4 Bft) 100,00 %
31.01.2020 21:00 12,1 C 11,1 C 10,6 C 88 % 1009,1 hPa 0,0 l/m 0 min 0 min 0 W/m 32,2 km/h (5 Bft) 100,00 %
31.01.2020 21:02 12,1 C 11,7 C 10,6 C 88 % 1009,2 hPa 0,0 l/m 0 min 0 min 0 W/m 35,4 km/h (5 Bft) 97,87 %
31.01.2020 21:04 12,1 C 11,7 C 10,6 C 88 % 1009,1 hPa 0,0 l/m 0 min 0 min 0 W/m 35,4 km/h (5 Bft) 100,00 %
31.01.2020 21:06 12,1 C 11,7 C 10,6 C 88 % 1009,1 hPa 0,0 l/m 0 min 0 min 0 W/m 35,4 km/h (5 Bft) 100,00 %
31.01.2020 21:08 12,1 C 11,1 C 10,6 C 88 % 1009,0 hPa 0,0 l/m 0 min 0 min 0 W/m 29,0 km/h (5 Bft) 97,87 %
31.01.2020 21:10 12,1 C 11,1 C 10,6 C 88 % 1009,0 hPa 0,0 l/m 0 min 0 min 0 W/m 29,0 km/h (5 Bft) 100,00 %
31.01.2020 21:12 12,1 C 11,1 C 10,6 C 88 % 1009,0 hPa 0,0 l/m 0 min 0 min 0 W/m 22,5 km/h (4 Bft) 100,00 %
31.01.2020 21:14 12,1 C 11,1 C 10,6 C 88 % 1009,0 hPa 0,0 l/m 0 min 0 min 0 W/m 29,0 km/h (5 Bft) 100,00 %
31.01.2020 21:16 12,1 C 11,1 C 10,6 C 88 % 1009,0 hPa 0,0 l/m 0 min 0 min 0 W/m 25,7 km/h (4 Bft) 100,00 %
31.01.2020 21:18 12,1 C 11,1 C 10,6 C 88 % 1008,9 hPa 0,0 l/m 0 min 0 min 0 W/m 29,0 km/h (5 Bft) 100,00 %
31.01.2020 21:20 12,1 C 11,1 C 10,6 C 88 % 1008,9 hPa 0,0 l/m 0 min 0 min 0 W/m 25,7 km/h (4 Bft) 100,00 %
31.01.2020 21:22 12,1 C 11,1 C 10,6 C 88 % 1009,0 hPa 0,0 l/m 0 min 0 min 0 W/m 29,0 km/h (5 Bft) 95,74 %
31.01.2020 21:24 12,1 C 11,1 C 10,6 C 88 % 1009,0 hPa 0,0 l/m 0 min 0 min 0 W/m 22,5 km/h (4 Bft) 100,00 %
31.01.2020 21:26 12,1 C 11,1 C 10,6 C 88 % 1008,9 hPa 0,0 l/m 0 min 0 min 0 W/m 22,5 km/h (4 Bft) 95,74 %
31.01.2020 21:28 12,1 C 11,1 C 10,6 C 88 % 1009,0 hPa 0,0 l/m 0 min 0 min 0 W/m 25,7 km/h (4 Bft) 100,00 %
31.01.2020 21:30 12,1 C 11,1 C 10,6 C 88 % 1008,9 hPa 0,0 l/m 0 min 0 min 0 W/m 25,7 km/h (4 Bft) 97,87 %
31.01.2020 21:32 12,1 C 11,1 C 10,6 C 88 % 1008,9 hPa 0,0 l/m 0 min 0 min 0 W/m 29,0 km/h (5 Bft) 100,00 %
31.01.2020 21:34 12,0 C 11,1 C 10,6 C 88 % 1008,9 hPa 0,0 l/m 0 min 0 min 0 W/m 32,2 km/h (5 Bft) 100,00 %
31.01.2020 21:36 12,0 C 11,1 C 10,6 C 89 % 1008,9 hPa 0,0 l/m 0 min 0 min 0 W/m 19,3 km/h (3 Bft) 97,87 %
31.01.2020 21:38 12,0 C 11,1 C 10,6 C 89 % 1008,9 hPa 0,0 l/m 0 min 0 min 0 W/m 16,1 km/h (3 Bft) 97,87 %
31.01.2020 21:40 12,1 C 11,1 C 10,6 C 89 % 1008,9 hPa 0,0 l/m 0 min 0 min 0 W/m 25,7 km/h (4 Bft) 100,00 %
31.01.2020 21:42 12,0 C 11,1 C 10,6 C 89 % 1008,9 hPa 0,0 l/m 0 min 0 min 0 W/m 22,5 km/h (4 Bft) 95,74 %
31.01.2020 21:44 12,0 C 11,1 C 10,6 C 89 % 1008,8 hPa 0,0 l/m 0 min 0 min 0 W/m 19,3 km/h (3 Bft) 97,83 %
31.01.2020 21:46 12,0 C 11,1 C 10,6 C 89 % 1008,8 hPa 0,0 l/m 0 min 0 min 0 W/m 25,7 km/h (4 Bft) 97,87 %
31.01.2020 21:48 12,0 C 11,1 C 10,6 C 89 % 1008,9 hPa 0,0 l/m 0 min 0 min 0 W/m 16,1 km/h (3 Bft) 97,87 %
31.01.2020 21:50 12,0 C 11,1 C 10,6 C 89 % 1008,8 hPa 0,0 l/m 0 min 0 min 0 W/m 29,0 km/h (5 Bft) 97,87 %
31.01.2020 21:52 12,0 C 11,1 C 10,6 C 89 % 1008,8 hPa 0,0 l/m 0 min 0 min 0 W/m 22,5 km/h (4 Bft) 97,87 %
31.01.2020 21:54 12,0 C 11,1 C 10,6 C 89 % 1008,7 hPa 0,0 l/m 0 min 0 min 0 W/m 25,7 km/h (4 Bft) 97,87 %
31.01.2020 21:56 12,0 C 11,1 C 10,6 C 89 % 1008,8 hPa 0,0 l/m 0 min 0 min 0 W/m 16,1 km/h (3 Bft) 95,65 %
31.01.2020 21:58 12,0 C 11,1 C 10,6 C 89 % 1008,8 hPa 0,0 l/m 0 min 0 min 0 W/m 19,3 km/h (3 Bft) 97,87 %
31.01.2020 22:00 12,0 C 11,1 C 10,6 C 89 % 1008,8 hPa 0,0 l/m 0 min 0 min 0 W/m 16,1 km/h (3 Bft) 97,87 %
31.01.2020 22:02 12,0 C 11,1 C 10,6 C 89 % 1008,7 hPa 0,0 l/m 0 min 0 min 0 W/m 19,3 km/h (3 Bft) 85,11 %
31.01.2020 22:04 12,0 C 11,1 C 10,6 C 89 % 1008,7 hPa 0,0 l/m 0 min 0 min 0 W/m 19,3 km/h (3 Bft) 68,89 %
31.01.2020 22:06 11,9 C 11,1 C 10,6 C 89 % 1008,7 hPa 0,0 l/m 0 min 0 min 0 W/m 19,3 km/h (3 Bft) 95,65 %
31.01.2020 22:08 11,9 C 11,1 C 10,6 C 89 % 1008,6 hPa 0,0 l/m 0 min 0 min 0 W/m 22,5 km/h (4 Bft) 95,74 %
31.01.2020 22:10 11,9 C 11,1 C 10,6 C 89 % 1008,7 hPa 0,0 l/m 0 min 0 min 0 W/m 19,3 km/h (3 Bft) 97,87 %
31.01.2020 22:12 11,9 C 11,1 C 10,6 C 89 % 1008,7 hPa 0,0 l/m 0 min 0 min 0 W/m 25,7 km/h (4 Bft) 97,87 %
31.01.2020 22:14 11,9 C 11,1 C 10,6 C 89 % 1008,6 hPa 0,0 l/m 0 min 0 min 0 W/m 25,7 km/h (4 Bft) 97,87 %
31.01.2020 22:16 11,9 C 11,1 C 10,6 C 89 % 1008,6 hPa 0,0 l/m 0 min 0 min 0 W/m 16,1 km/h (3 Bft) 97,87 %
31.01.2020 22:18 11,9 C 11,1 C 10,6 C 89 % 1008,6 hPa 0,0 l/m 0 min 0 min 0 W/m 19,3 km/h (3 Bft) 97,83 %
31.01.2020 22:20 11,9 C 11,1 C 10,6 C 89 % 1008,6 hPa 0,0 l/m 0 min 0 min 0 W/m 25,7 km/h (4 Bft) 97,87 %
31.01.2020 22:22 11,9 C 11,1 C 10,6 C 89 % 1008,5 hPa 0,0 l/m 0 min 0 min 0 W/m 29,0 km/h (5 Bft) 95,74 %
31.01.2020 22:24 11,9 C 11,1 C 10,6 C 89 % 1008,5 hPa 0,0 l/m 0 min 0 min 0 W/m 19,3 km/h (3 Bft) 97,87 %
31.01.2020 22:26 11,9 C 11,1 C 10,6 C 89 % 1008,5 hPa 0,0 l/m 0 min 0 min 0 W/m 35,4 km/h (5 Bft) 97,87 %
31.01.2020 22:28 11,9 C 11,1 C 10,6 C 89 % 1008,4 hPa 0,0 l/m 0 min 0 min 0 W/m 25,7 km/h (4 Bft) 100,00 %
31.01.2020 22:30 11,9 C 11,1 C 10,6 C 89 % 1008,4 hPa 0,0 l/m 0 min 0 min 0 W/m 22,5 km/h (4 Bft) 100,00 %
31.01.2020 22:32 11,9 C 11,1 C 10,6 C 89 % 1008,4 hPa 0,0 l/m 0 min 0 min 0 W/m 19,3 km/h (3 Bft) 100,00 %
31.01.2020 22:34 11,9 C 11,1 C 10,6 C 89 % 1008,4 hPa 0,0 l/m 0 min 0 min 0 W/m 19,3 km/h (3 Bft) 100,00 %
31.01.2020 22:36 12,0 C 11,1 C 10,6 C 89 % 1008,4 hPa 0,0 l/m 0 min 0 min 0 W/m 22,5 km/h (4 Bft) 97,87 %
31.01.2020 22:38 11,9 C 11,1 C 10,6 C 89 % 1008,4 hPa 0,0 l/m 0 min 0 min 0 W/m 22,5 km/h (4 Bft) 100,00 %
31.01.2020 22:40 11,9 C 11,1 C 10,6 C 89 % 1008,4 hPa 0,0 l/m 0 min 0 min 0 W/m 22,5 km/h (4 Bft) 100,00 %
31.01.2020 22:42 11,9 C 11,1 C 10,6 C 89 % 1008,4 hPa 0,0 l/m 0 min 0 min 0 W/m 16,1 km/h (3 Bft) 95,65 %
31.01.2020 22:44 11,9 C 11,1 C 10,6 C 89 % 1008,3 hPa 0,0 l/m 0 min 0 min 0 W/m 29,0 km/h (5 Bft) 97,87 %
31.01.2020 22:46 12,0 C 11,7 C 10,6 C 89 % 1008,3 hPa 0,0 l/m 0 min 0 min 0 W/m 38,6 km/h (5 Bft) 95,74 %
31.01.2020 22:48 12,0 C 11,7 C 10,6 C 89 % 1008,3 hPa 0,0 l/m 0 min 0 min 0 W/m 38,6 km/h (5 Bft) 95,74 %
31.01.2020 22:50 12,0 C 11,7 C 10,6 C 89 % 1008,3 hPa 0,0 l/m 0 min 0 min 0 W/m 22,5 km/h (4 Bft) 95,74 %
31.01.2020 22:52 12,1 C 11,7 C 10,6 C 89 % 1008,4 hPa 0,0 l/m 0 min 0 min 0 W/m 25,7 km/h (4 Bft) 93,62 %
31.01.2020 22:54 12,1 C 11,7 C 10,6 C 89 % 1008,3 hPa 0,0 l/m 0 min 0 min 0 W/m 29,0 km/h (5 Bft) 95,65 %
31.01.2020 22:56 12,1 C 11,7 C 10,6 C 90 % 1008,3 hPa 0,0 l/m 0 min 0 min 0 W/m 29,0 km/h (5 Bft) 95,74 %
31.01.2020 22:58 12,1 C 11,7 C 10,6 C 90 % 1008,4 hPa 0,0 l/m 0 min 0 min 0 W/m 22,5 km/h (4 Bft) 97,87 %
31.01.2020 23:00 12,1 C 11,7 C 10,6 C 90 % 1008,3 hPa 0,0 l/m 0 min 0 min 0 W/m 19,3 km/h (3 Bft) 95,74 %
31.01.2020 23:02 12,1 C 11,7 C 10,6 C 90 % 1008,3 hPa 0,0 l/m 0 min 0 min 0 W/m 38,6 km/h (5 Bft) 93,62 %
31.01.2020 23:04 12,2 C 11,7 C 10,6 C 90 % 1008,4 hPa 0,0 l/m 0 min 0 min 0 W/m 29,0 km/h (5 Bft) 95,74 %
31.01.2020 23:06 12,2 C 11,7 C 10,6 C 90 % 1008,4 hPa 0,0 l/m 0 min 0 min 0 W/m 29,0 km/h (5 Bft) 95,65 %
31.01.2020 23:08 12,2 C 11,7 C 11,1 C 90 % 1008,4 hPa 0,0 l/m 0 min 0 min 0 W/m 29,0 km/h (5 Bft) 95,74 %
31.01.2020 23:10 12,2 C 11,7 C 11,1 C 90 % 1008,4 hPa 0,0 l/m 0 min 0 min 0 W/m 25,7 km/h (4 Bft) 89,36 %
31.01.2020 23:12 12,2 C 11,7 C 11,1 C 90 % 1008,4 hPa 0,0 l/m 0 min 0 min 0 W/m 25,7 km/h (4 Bft) 95,74 %
31.01.2020 23:14 12,2 C 11,7 C 11,1 C 90 % 1008,4 hPa 0,0 l/m 0 min 0 min 0 W/m 25,7 km/h (4 Bft) 95,74 %
31.01.2020 23:16 12,2 C 11,7 C 11,1 C 90 % 1008,5 hPa 0,0 l/m 0 min 0 min 0 W/m 32,2 km/h (5 Bft) 95,65 %
31.01.2020 23:18 12,2 C 11,7 C 11,1 C 90 % 1008,4 hPa 0,0 l/m 0 min 0 min 0 W/m 29,0 km/h (5 Bft) 95,74 %
31.01.2020 23:20 12,3 C 11,7 C 11,1 C 90 % 1008,4 hPa 0,0 l/m 0 min 0 min 0 W/m 29,0 km/h (5 Bft) 95,74 %
31.01.2020 23:22 12,3 C 11,7 C 11,1 C 89 % 1008,4 hPa 0,0 l/m 0 min 0 min 0 W/m 29,0 km/h (5 Bft) 95,74 %
31.01.2020 23:24 12,3 C 11,7 C 11,1 C 89 % 1008,3 hPa 0,0 l/m 0 min 0 min 0 W/m 25,7 km/h (4 Bft) 93,62 %
31.01.2020 23:26 12,3 C 11,7 C 11,1 C 89 % 1008,4 hPa 0,0 l/m 0 min 0 min 0 W/m 29,0 km/h (5 Bft) 97,87 %
31.01.2020 23:28 12,3 C 11,7 C 11,1 C 89 % 1008,4 hPa 0,0 l/m 0 min 0 min 0 W/m 41,8 km/h (6 Bft) 95,65 %
31.01.2020 23:30 12,3 C 11,7 C 11,1 C 89 % 1008,2 hPa 0,0 l/m 0 min 0 min 0 W/m 41,8 km/h (6 Bft) 97,87 %
31.01.2020 23:32 12,4 C 11,7 C 11,1 C 89 % 1008,2 hPa 0,0 l/m 0 min 0 min 0 W/m 35,4 km/h (5 Bft) 95,74 %
31.01.2020 23:34 12,4 C 11,7 C 11,1 C 89 % 1008,1 hPa 0,0 l/m 0 min 0 min 0 W/m 38,6 km/h (5 Bft) 97,87 %
31.01.2020 23:36 12,4 C 11,7 C 11,1 C 89 % 1008,2 hPa 0,0 l/m 0 min 0 min 0 W/m 22,5 km/h (4 Bft) 100,00 %
31.01.2020 23:38 12,4 C 11,7 C 11,1 C 89 % 1008,1 hPa 0,0 l/m 0 min 0 min 0 W/m 25,7 km/h (4 Bft) 100,00 %
31.01.2020 23:40 12,4 C 11,7 C 11,1 C 89 % 1008,1 hPa 0,0 l/m 0 min 0 min 0 W/m 32,2 km/h (5 Bft) 97,83 %
31.01.2020 23:42 12,5 C 11,7 C 11,1 C 89 % 1008,2 hPa 0,0 l/m 0 min 0 min 0 W/m 38,6 km/h (5 Bft) 100,00 %
31.01.2020 23:44 12,5 C 11,7 C 11,1 C 89 % 1008,2 hPa 0,0 l/m 0 min 0 min 0 W/m 25,7 km/h (4 Bft) 100,00 %
31.01.2020 23:46 12,5 C 11,7 C 11,1 C 89 % 1008,1 hPa 0,0 l/m 0 min 0 min 0 W/m 38,6 km/h (5 Bft) 97,87 %
31.01.2020 23:48 12,5 C 11,7 C 11,1 C 89 % 1008,0 hPa 0,0 l/m 0 min 0 min 0 W/m 29,0 km/h (5 Bft) 100,00 %
31.01.2020 23:50 12,5 C 11,7 C 11,1 C 89 % 1008,0 hPa 0,0 l/m 0 min 0 min 0 W/m 25,7 km/h (4 Bft) 97,87 %
31.01.2020 23:52 12,5 C 11,7 C 11,1 C 89 % 1008,0 hPa 0,0 l/m 0 min 0 min 0 W/m 25,7 km/h (4 Bft) 100,00 %
31.01.2020 23:54 12,5 C 11,7 C 11,1 C 89 % 1008,0 hPa 0,0 l/m 0 min 0 min 0 W/m 25,7 km/h (4 Bft) 100,00 %
31.01.2020 23:56 12,6 C 11,7 C 11,1 C 89 % 1008,1 hPa 0,0 l/m 0 min 0 min 0 W/m 32,2 km/h (5 Bft) 100,00 %
31.01.2020 23:58 12,6 C 11,7 C 11,1 C 89 % 1008,0 hPa 0,0 l/m 0 min 0 min 0 W/m 41,8 km/h (6 Bft) 100,00 %
_ Min-Zeit 09:22 04:14 04:18 11:24 00:00 - - - - 01:52 05:20
Minimum _ 10,4 C 9,4 C 8,9 C 84 % 1002,9 hPa - - - - 0,0 km/h (0 Bft) 43,24 %
_ Max-Zeit 15:08 11:10 12:30 00:18 11:42 01:58 10:32 01:04 11:16 11:24 00:00
Maximum _ 13,3 C 13,3 C 12,2 C 100 % 1010,8 hPa 0,2 l/m 2 min 2 min 317 W/m 48,3 km/h
S-SO (6 Bft)
100,00 %
Durchschnitt _ 11,9 C 11,3 C 10,5 C 90 % 1008,6 hPa #0,4 l/m #34 min. #44 min. 95 W/m 20,4 km/h (4 Bft) 97,38 %
© 2020 W. Hausmann